Wetterdaten: Freitag, 16.11.2018
Datum Zeit Temp. Aussen Temp. o. S. +5cm Feuchte Auss Luftdruck Regen Sonnenschein Regendauer Solar Windben Empfang
16.11.2018 00:00 4,5 C 3,9 C 3,3 C 93 % 1024,2 hPa 0,0 l/m 0 min 0 min 0 W/m 25,7 km/h (4 Bft) 97,87 %
16.11.2018 00:02 4,5 C 3,9 C 3,3 C 93 % 1024,1 hPa 0,0 l/m 0 min 0 min 0 W/m 22,5 km/h (4 Bft) 95,12 %
16.11.2018 00:04 4,5 C 3,9 C 3,3 C 93 % 1024,2 hPa 0,0 l/m 0 min 0 min 0 W/m 19,3 km/h (3 Bft) 95,74 %
16.11.2018 00:07 4,5 C 3,9 C 3,3 C 93 % 1024,2 hPa 0,0 l/m 0 min 0 min 0 W/m 22,5 km/h (4 Bft) 97,18 %
16.11.2018 00:08 4,5 C 3,9 C 3,3 C 93 % 1024,3 hPa 0,0 l/m 0 min 0 min 0 W/m 25,7 km/h (4 Bft) 100,00 %
16.11.2018 00:10 4,5 C 3,9 C 3,3 C 93 % 1024,2 hPa 0,0 l/m 0 min 0 min 0 W/m 22,5 km/h (4 Bft) 97,83 %
16.11.2018 00:12 4,5 C 3,9 C 3,3 C 93 % 1024,2 hPa 0,0 l/m 0 min 0 min 0 W/m 19,3 km/h (3 Bft) 95,74 %
16.11.2018 00:14 4,5 C 3,9 C 3,3 C 93 % 1024,2 hPa 0,0 l/m 0 min 0 min 0 W/m 19,3 km/h (3 Bft) 97,87 %
16.11.2018 00:16 4,5 C 3,9 C 3,3 C 93 % 1024,3 hPa 0,0 l/m 0 min 0 min 0 W/m 29,0 km/h (5 Bft) 95,74 %
16.11.2018 00:18 4,5 C 3,9 C 3,3 C 93 % 1024,3 hPa 0,0 l/m 0 min 0 min 0 W/m 32,2 km/h (5 Bft) 97,87 %
16.11.2018 00:20 4,5 C 4,4 C 3,3 C 93 % 1024,2 hPa 0,0 l/m 0 min 0 min 0 W/m 25,7 km/h (4 Bft) 97,87 %
16.11.2018 00:22 4,5 C 3,9 C 3,3 C 93 % 1024,2 hPa 0,0 l/m 0 min 0 min 0 W/m 29,0 km/h (5 Bft) 97,83 %
16.11.2018 00:24 4,5 C 3,9 C 3,3 C 93 % 1024,2 hPa 0,0 l/m 0 min 0 min 0 W/m 19,3 km/h (3 Bft) 97,87 %
16.11.2018 00:26 4,6 C 3,9 C 3,3 C 93 % 1024,2 hPa 0,0 l/m 0 min 0 min 0 W/m 25,7 km/h (4 Bft) 97,87 %
16.11.2018 00:28 4,6 C 3,9 C 3,3 C 93 % 1024,2 hPa 0,0 l/m 0 min 0 min 0 W/m 22,5 km/h (4 Bft) 100,00 %
16.11.2018 00:30 4,6 C 3,9 C 3,3 C 93 % 1024,1 hPa 0,0 l/m 0 min 0 min 0 W/m 25,7 km/h (4 Bft) 97,87 %
16.11.2018 00:32 4,6 C 3,9 C 3,3 C 93 % 1024,3 hPa 0,0 l/m 0 min 0 min 0 W/m 19,3 km/h (3 Bft) 97,87 %
16.11.2018 00:34 4,6 C 3,9 C 3,3 C 93 % 1024,2 hPa 0,0 l/m 0 min 0 min 0 W/m 25,7 km/h (4 Bft) 97,83 %
16.11.2018 00:36 4,6 C 3,9 C 3,3 C 93 % 1024,1 hPa 0,0 l/m 0 min 0 min 0 W/m 22,5 km/h (4 Bft) 97,87 %
16.11.2018 00:38 4,6 C 3,9 C 3,3 C 93 % 1024,2 hPa 0,0 l/m 0 min 0 min 0 W/m 12,9 km/h (3 Bft) 93,62 %
16.11.2018 00:40 4,6 C 4,4 C 3,3 C 93 % 1024,2 hPa 0,0 l/m 0 min 0 min 0 W/m 22,5 km/h (4 Bft) 97,87 %
16.11.2018 00:42 4,6 C 4,4 C 3,3 C 93 % 1024,1 hPa 0,0 l/m 0 min 0 min 0 W/m 22,5 km/h (4 Bft) 97,87 %
16.11.2018 00:44 4,6 C 4,4 C 3,3 C 93 % 1024,1 hPa 0,0 l/m 0 min 0 min 0 W/m 12,9 km/h (3 Bft) 97,87 %
16.11.2018 00:46 4,6 C 3,9 C 3,3 C 93 % 1024,2 hPa 0,0 l/m 0 min 0 min 0 W/m 16,1 km/h (3 Bft) 93,48 %
16.11.2018 00:48 4,6 C 3,9 C 3,3 C 93 % 1024,1 hPa 0,0 l/m 0 min 0 min 0 W/m 19,3 km/h (3 Bft) 100,00 %
16.11.2018 00:50 4,6 C 3,9 C 3,3 C 93 % 1024,1 hPa 0,0 l/m 0 min 0 min 0 W/m 19,3 km/h (3 Bft) 100,00 %
16.11.2018 00:52 4,7 C 3,9 C 3,3 C 93 % 1024,1 hPa 0,0 l/m 0 min 0 min 0 W/m 25,7 km/h (4 Bft) 100,00 %
16.11.2018 00:54 4,7 C 4,4 C 3,3 C 93 % 1024,2 hPa 0,0 l/m 0 min 0 min 0 W/m 19,3 km/h (3 Bft) 100,00 %
16.11.2018 00:56 4,6 C 4,4 C 3,3 C 93 % 1024,1 hPa 0,0 l/m 0 min 0 min 0 W/m 25,7 km/h (4 Bft) 95,74 %
16.11.2018 00:58 4,7 C 3,9 C 3,3 C 93 % 1024,2 hPa 0,0 l/m 0 min 0 min 0 W/m 22,5 km/h (4 Bft) 100,00 %
16.11.2018 01:00 4,7 C 3,9 C 3,3 C 93 % 1024,1 hPa 0,0 l/m 0 min 0 min 0 W/m 25,7 km/h (4 Bft) 97,87 %
16.11.2018 01:02 4,7 C 3,9 C 3,3 C 93 % 1024,1 hPa 0,0 l/m 0 min 0 min 0 W/m 16,1 km/h (3 Bft) 93,62 %
16.11.2018 01:04 4,7 C 3,9 C 3,3 C 93 % 1024,1 hPa 0,0 l/m 0 min 0 min 0 W/m 22,5 km/h (4 Bft) 97,87 %
16.11.2018 01:06 4,6 C 3,9 C 3,3 C 93 % 1024,1 hPa 0,0 l/m 0 min 0 min 0 W/m 22,5 km/h (4 Bft) 95,74 %
16.11.2018 01:08 4,6 C 3,9 C 3,3 C 93 % 1024,2 hPa 0,0 l/m 0 min 0 min 0 W/m 16,1 km/h (3 Bft) 97,83 %
16.11.2018 01:10 4,6 C 3,9 C 3,3 C 93 % 1024,2 hPa 0,0 l/m 0 min 0 min 0 W/m 16,1 km/h (3 Bft) 97,87 %
16.11.2018 01:12 4,6 C 3,9 C 3,3 C 93 % 1024,2 hPa 0,0 l/m 0 min 0 min 0 W/m 16,1 km/h (3 Bft) 95,74 %
16.11.2018 01:14 4,6 C 3,9 C 3,3 C 93 % 1024,2 hPa 0,0 l/m 0 min 0 min 0 W/m 16,1 km/h (3 Bft) 97,87 %
16.11.2018 01:16 4,6 C 3,9 C 3,3 C 93 % 1024,2 hPa 0,0 l/m 0 min 0 min 0 W/m 19,3 km/h (3 Bft) 97,87 %
16.11.2018 01:18 4,6 C 3,9 C 3,3 C 93 % 1024,2 hPa 0,0 l/m 0 min 0 min 0 W/m 16,1 km/h (3 Bft) 97,87 %
16.11.2018 01:20 4,6 C 3,9 C 3,3 C 93 % 1024,3 hPa 0,0 l/m 0 min 0 min 0 W/m 9,7 km/h (2 Bft) 97,83 %
16.11.2018 01:22 4,6 C 3,9 C 3,3 C 93 % 1024,2 hPa 0,0 l/m 0 min 0 min 0 W/m 16,1 km/h (3 Bft) 97,87 %
16.11.2018 01:24 4,6 C 3,9 C 3,3 C 93 % 1024,2 hPa 0,0 l/m 0 min 0 min 0 W/m 19,3 km/h (3 Bft) 95,74 %
16.11.2018 01:26 4,6 C 3,9 C 3,3 C 93 % 1024,2 hPa 0,0 l/m 0 min 0 min 0 W/m 16,1 km/h (3 Bft) 97,87 %
16.11.2018 01:28 4,6 C 3,9 C 3,3 C 93 % 1024,2 hPa 0,0 l/m 0 min 0 min 0 W/m 12,9 km/h (3 Bft) 97,87 %
16.11.2018 01:30 4,5 C 3,9 C 3,3 C 93 % 1024,2 hPa 0,0 l/m 0 min 0 min 0 W/m 19,3 km/h (3 Bft) 97,87 %
16.11.2018 01:32 4,5 C 3,9 C 3,3 C 93 % 1024,2 hPa 0,0 l/m 0 min 0 min 0 W/m 25,7 km/h (4 Bft) 95,65 %
16.11.2018 01:34 4,5 C 3,9 C 3,3 C 93 % 1024,2 hPa 0,0 l/m 0 min 0 min 0 W/m 19,3 km/h (3 Bft) 97,87 %
16.11.2018 01:36 4,5 C 3,9 C 3,3 C 93 % 1024,2 hPa 0,0 l/m 0 min 0 min 0 W/m 29,0 km/h (5 Bft) 97,87 %
16.11.2018 01:38 4,5 C 3,9 C 3,3 C 93 % 1024,2 hPa 0,0 l/m 0 min 0 min 0 W/m 16,1 km/h (3 Bft) 97,87 %
16.11.2018 01:40 4,5 C 3,9 C 3,3 C 93 % 1024,2 hPa 0,0 l/m 0 min 0 min 0 W/m 16,1 km/h (3 Bft) 95,74 %
16.11.2018 01:42 4,5 C 3,9 C 3,3 C 93 % 1024,2 hPa 0,0 l/m 0 min 0 min 0 W/m 12,9 km/h (3 Bft) 95,74 %
16.11.2018 01:44 4,5 C 3,9 C 3,3 C 93 % 1024,3 hPa 0,0 l/m 0 min 0 min 0 W/m 16,1 km/h (3 Bft) 100,00 %
16.11.2018 01:46 4,5 C 3,9 C 3,3 C 93 % 1024,3 hPa 0,0 l/m 0 min 0 min 0 W/m 12,9 km/h (3 Bft) 100,00 %
16.11.2018 01:48 4,5 C 3,9 C 3,3 C 93 % 1024,4 hPa 0,0 l/m 0 min 0 min 0 W/m 12,9 km/h (3 Bft) 95,74 %
16.11.2018 01:50 4,5 C 3,9 C 3,3 C 93 % 1024,3 hPa 0,0 l/m 0 min 0 min 0 W/m 16,1 km/h (3 Bft) 100,00 %
16.11.2018 01:52 4,4 C 3,9 C 3,3 C 93 % 1024,4 hPa 0,0 l/m 0 min 0 min 0 W/m 16,1 km/h (3 Bft) 100,00 %
16.11.2018 01:54 4,4 C 3,9 C 3,3 C 93 % 1024,5 hPa 0,0 l/m 0 min 0 min 0 W/m 16,1 km/h (3 Bft) 100,00 %
16.11.2018 01:56 4,4 C 3,9 C 3,3 C 93 % 1024,4 hPa 0,0 l/m 0 min 0 min 0 W/m 22,5 km/h (4 Bft) 100,00 %
16.11.2018 01:58 4,4 C 3,9 C 3,3 C 93 % 1024,5 hPa 0,0 l/m 0 min 0 min 0 W/m 16,1 km/h (3 Bft) 100,00 %
16.11.2018 02:00 4,4 C 3,9 C 3,3 C 94 % 1024,4 hPa 0,0 l/m 0 min 0 min 0 W/m 12,9 km/h (3 Bft) 97,87 %
16.11.2018 02:02 4,4 C 3,9 C 3,3 C 94 % 1024,4 hPa 0,0 l/m 0 min 0 min 0 W/m 16,1 km/h (3 Bft) 97,87 %
16.11.2018 02:04 4,4 C 3,9 C 3,3 C 94 % 1024,4 hPa 0,0 l/m 0 min 0 min 0 W/m 16,1 km/h (3 Bft) 97,87 %
16.11.2018 02:06 4,4 C 3,9 C 3,3 C 94 % 1024,3 hPa 0,0 l/m 0 min 0 min 0 W/m 12,9 km/h (3 Bft) 97,83 %
16.11.2018 02:08 4,4 C 3,9 C 3,3 C 94 % 1024,4 hPa 0,0 l/m 0 min 0 min 0 W/m 16,1 km/h (3 Bft) 95,74 %
16.11.2018 02:10 4,4 C 3,9 C 3,3 C 94 % 1024,4 hPa 0,0 l/m 0 min 0 min 0 W/m 16,1 km/h (3 Bft) 97,87 %
16.11.2018 02:12 4,4 C 3,9 C 3,3 C 94 % 1024,4 hPa 0,0 l/m 0 min 0 min 0 W/m 25,7 km/h (4 Bft) 95,74 %
16.11.2018 02:14 4,4 C 3,9 C 3,3 C 94 % 1024,5 hPa 0,0 l/m 0 min 0 min 0 W/m 16,1 km/h (3 Bft) 97,87 %
16.11.2018 02:16 4,4 C 3,9 C 3,3 C 94 % 1024,5 hPa 0,0 l/m 0 min 0 min 0 W/m 19,3 km/h (3 Bft) 97,87 %
16.11.2018 02:18 4,4 C 3,9 C 3,3 C 94 % 1024,4 hPa 0,0 l/m 0 min 0 min 0 W/m 19,3 km/h (3 Bft) 97,83 %
16.11.2018 02:20 4,4 C 3,9 C 3,3 C 94 % 1024,4 hPa 0,0 l/m 0 min 0 min 0 W/m 25,7 km/h (4 Bft) 97,87 %
16.11.2018 02:22 4,4 C 3,9 C 3,3 C 94 % 1024,4 hPa 0,0 l/m 0 min 0 min 0 W/m 22,5 km/h (4 Bft) 97,87 %
16.11.2018 02:24 4,4 C 3,9 C 3,3 C 94 % 1024,4 hPa 0,0 l/m 0 min 0 min 0 W/m 22,5 km/h (4 Bft) 95,74 %
16.11.2018 02:26 4,4 C 3,9 C 3,3 C 94 % 1024,4 hPa 0,0 l/m 0 min 0 min 0 W/m 22,5 km/h (4 Bft) 97,87 %
16.11.2018 02:28 4,4 C 3,9 C 3,3 C 94 % 1024,4 hPa 0,0 l/m 0 min 0 min 0 W/m 16,1 km/h (3 Bft) 97,87 %
16.11.2018 02:30 4,4 C 3,9 C 3,3 C 94 % 1024,4 hPa 0,0 l/m 0 min 0 min 0 W/m 25,7 km/h (4 Bft) 95,65 %
16.11.2018 02:32 4,4 C 3,9 C 3,3 C 94 % 1024,3 hPa 0,0 l/m 0 min 0 min 0 W/m 25,7 km/h (4 Bft) 97,87 %
16.11.2018 02:34 4,4 C 3,9 C 3,3 C 94 % 1024,4 hPa 0,0 l/m 0 min 0 min 0 W/m 19,3 km/h (3 Bft) 97,87 %
16.11.2018 02:36 4,4 C 3,9 C 3,3 C 94 % 1024,3 hPa 0,0 l/m 0 min 0 min 0 W/m 22,5 km/h (4 Bft) 97,87 %
16.11.2018 02:38 4,4 C 3,9 C 3,3 C 94 % 1024,3 hPa 0,0 l/m 0 min 0 min 0 W/m 25,7 km/h (4 Bft) 97,87 %
16.11.2018 02:40 4,4 C 3,9 C 3,3 C 94 % 1024,3 hPa 0,0 l/m 0 min 0 min 0 W/m 16,1 km/h (3 Bft) 97,87 %
16.11.2018 02:42 4,3 C 3,9 C 3,3 C 94 % 1024,3 hPa 0,0 l/m 0 min 0 min 0 W/m 25,7 km/h (4 Bft) 95,65 %
16.11.2018 02:44 4,4 C 3,9 C 3,3 C 94 % 1024,3 hPa 0,0 l/m 0 min 0 min 0 W/m 16,1 km/h (3 Bft) 97,87 %
16.11.2018 02:46 4,4 C 3,9 C 3,3 C 94 % 1024,3 hPa 0,0 l/m 0 min 0 min 0 W/m 19,3 km/h (3 Bft) 100,00 %
16.11.2018 02:48 4,3 C 3,9 C 3,3 C 94 % 1024,3 hPa 0,0 l/m 0 min 0 min 0 W/m 22,5 km/h (4 Bft) 100,00 %
16.11.2018 02:50 4,3 C 3,9 C 3,3 C 94 % 1024,3 hPa 0,0 l/m 0 min 0 min 0 W/m 22,5 km/h (4 Bft) 100,00 %
16.11.2018 02:52 4,3 C 3,9 C 3,3 C 94 % 1024,3 hPa 0,0 l/m 0 min 0 min 0 W/m 22,5 km/h (4 Bft) 100,00 %
16.11.2018 02:54 4,3 C 3,9 C 3,3 C 94 % 1024,4 hPa 0,0 l/m 0 min 0 min 0 W/m 16,1 km/h (3 Bft) 97,83 %
16.11.2018 02:56 4,3 C 3,9 C 3,3 C 94 % 1024,4 hPa 0,0 l/m 0 min 0 min 0 W/m 12,9 km/h (3 Bft) 97,87 %
16.11.2018 02:58 4,3 C 3,9 C 3,3 C 94 % 1024,4 hPa 0,0 l/m 0 min 0 min 0 W/m 22,5 km/h (4 Bft) 100,00 %
16.11.2018 03:00 4,3 C 3,9 C 3,3 C 94 % 1024,4 hPa 0,0 l/m 0 min 0 min 0 W/m 16,1 km/h (3 Bft) 100,00 %
16.11.2018 03:02 4,3 C 3,9 C 3,3 C 94 % 1024,4 hPa 0,0 l/m 0 min 0 min 0 W/m 22,5 km/h (4 Bft) 97,87 %
16.11.2018 03:04 4,3 C 3,9 C 3,3 C 94 % 1024,4 hPa 0,0 l/m 0 min 0 min 0 W/m 16,1 km/h (3 Bft) 100,00 %
16.11.2018 03:06 4,3 C 3,9 C 3,3 C 94 % 1024,4 hPa 0,0 l/m 0 min 0 min 0 W/m 12,9 km/h (3 Bft) 100,00 %
16.11.2018 03:08 4,3 C 3,9 C 2,8 C 93 % 1024,3 hPa 0,0 l/m 0 min 0 min 0 W/m 12,9 km/h (3 Bft) 100,00 %
16.11.2018 03:10 4,3 C 3,9 C 3,3 C 93 % 1024,3 hPa 0,0 l/m 0 min 0 min 0 W/m 22,5 km/h (4 Bft) 97,87 %
16.11.2018 03:12 4,3 C 3,9 C 3,3 C 93 % 1024,4 hPa 0,0 l/m 0 min 0 min 0 W/m 19,3 km/h (3 Bft) 100,00 %
16.11.2018 03:14 4,3 C 3,9 C 3,3 C 93 % 1024,4 hPa 0,0 l/m 0 min 0 min 0 W/m 25,7 km/h (4 Bft) 100,00 %
16.11.2018 03:16 4,3 C 3,9 C 3,3 C 94 % 1024,4 hPa 0,0 l/m 0 min 0 min 0 W/m 22,5 km/h (4 Bft) 100,00 %
16.11.2018 03:18 4,2 C 3,9 C 3,3 C 94 % 1024,4 hPa 0,0 l/m 0 min 0 min 0 W/m 16,1 km/h (3 Bft) 100,00 %
16.11.2018 03:20 4,2 C 3,9 C 3,3 C 94 % 1024,3 hPa 0,0 l/m 0 min 0 min 0 W/m 16,1 km/h (3 Bft) 100,00 %
16.11.2018 03:22 4,3 C 3,9 C 3,3 C 94 % 1024,4 hPa 0,0 l/m 0 min 0 min 0 W/m 25,7 km/h (4 Bft) 100,00 %
16.11.2018 03:24 4,3 C 3,9 C 3,3 C 94 % 1024,3 hPa 0,0 l/m 0 min 0 min 0 W/m 25,7 km/h (4 Bft) 100,00 %
16.11.2018 03:26 4,2 C 3,9 C 3,3 C 94 % 1024,3 hPa 0,0 l/m 0 min 0 min 0 W/m 19,3 km/h (3 Bft) 97,87 %
16.11.2018 03:28 4,2 C 3,9 C 3,3 C 94 % 1024,3 hPa 0,0 l/m 0 min 0 min 0 W/m 16,1 km/h (3 Bft) 97,83 %
16.11.2018 03:30 4,2 C 3,9 C 3,3 C 94 % 1024,3 hPa 0,0 l/m 0 min 0 min 0 W/m 22,5 km/h (4 Bft) 95,74 %
16.11.2018 03:32 4,2 C 3,9 C 3,3 C 94 % 1024,4 hPa 0,0 l/m 0 min 0 min 0 W/m 16,1 km/h (3 Bft) 95,74 %
16.11.2018 03:34 4,2 C 3,9 C 3,3 C 94 % 1024,4 hPa 0,0 l/m 0 min 0 min 0 W/m 16,1 km/h (3 Bft) 95,74 %
16.11.2018 03:36 4,2 C 3,9 C 2,8 C 94 % 1024,3 hPa 0,0 l/m 0 min 0 min 0 W/m 12,9 km/h (3 Bft) 97,87 %
16.11.2018 03:38 4,2 C 3,3 C 2,8 C 94 % 1024,4 hPa 0,0 l/m 0 min 0 min 0 W/m 16,1 km/h (3 Bft) 95,74 %
16.11.2018 03:40 4,2 C 3,9 C 2,8 C 94 % 1024,4 hPa 0,0 l/m 0 min 0 min 0 W/m 19,3 km/h (3 Bft) 97,83 %
16.11.2018 03:42 4,2 C 3,3 C 2,8 C 94 % 1024,5 hPa 0,0 l/m 0 min 0 min 0 W/m 19,3 km/h (3 Bft) 95,74 %
16.11.2018 03:44 4,2 C 3,9 C 3,3 C 94 % 1024,5 hPa 0,0 l/m 0 min 0 min 0 W/m 16,1 km/h (3 Bft) 95,74 %
16.11.2018 03:46 4,2 C 3,9 C 3,3 C 94 % 1024,5 hPa 0,0 l/m 0 min 0 min 0 W/m 16,1 km/h (3 Bft) 93,62 %
16.11.2018 03:48 4,2 C 3,9 C 3,3 C 94 % 1024,4 hPa 0,0 l/m 0 min 0 min 0 W/m 22,5 km/h (4 Bft) 95,74 %
16.11.2018 03:50 4,2 C 3,9 C 3,3 C 94 % 1024,4 hPa 0,0 l/m 0 min 0 min 0 W/m 19,3 km/h (3 Bft) 94,00 %
16.11.2018 03:52 4,2 C 3,9 C 3,3 C 94 % 1024,4 hPa 0,0 l/m 0 min 0 min 0 W/m 22,5 km/h (4 Bft) 95,65 %
16.11.2018 03:54 4,2 C 3,9 C 3,3 C 94 % 1024,5 hPa 0,0 l/m 0 min 0 min 0 W/m 19,3 km/h (3 Bft) 95,74 %
16.11.2018 03:56 4,2 C 3,9 C 3,3 C 94 % 1024,5 hPa 0,0 l/m 0 min 0 min 0 W/m 19,3 km/h (3 Bft) 93,62 %
16.11.2018 03:58 4,3 C 3,9 C 3,3 C 94 % 1024,5 hPa 0,0 l/m 0 min 0 min 0 W/m 29,0 km/h (5 Bft) 95,74 %
16.11.2018 04:00 4,3 C 3,9 C 3,3 C 94 % 1024,5 hPa 0,0 l/m 0 min 0 min 0 W/m 16,1 km/h (3 Bft) 95,74 %
16.11.2018 04:02 4,3 C 3,9 C 3,3 C 94 % 1024,4 hPa 0,0 l/m 0 min 0 min 0 W/m 16,1 km/h (3 Bft) 100,00 %
16.11.2018 04:04 4,3 C 3,9 C 3,3 C 94 % 1024,5 hPa 0,0 l/m 0 min 0 min 0 W/m 16,1 km/h (3 Bft) 100,00 %
16.11.2018 04:06 4,3 C 3,9 C 3,3 C 94 % 1024,6 hPa 0,0 l/m 0 min 0 min 0 W/m 22,5 km/h (4 Bft) 97,87 %
16.11.2018 04:08 4,3 C 3,9 C 3,3 C 94 % 1024,5 hPa 0,0 l/m 0 min 0 min 0 W/m 16,1 km/h (3 Bft) 100,00 %
16.11.2018 04:10 4,3 C 3,9 C 3,3 C 94 % 1024,4 hPa 0,0 l/m 0 min 0 min 0 W/m 16,1 km/h (3 Bft) 95,74 %
16.11.2018 04:12 4,3 C 3,9 C 3,3 C 94 % 1024,5 hPa 0,0 l/m 0 min 0 min 0 W/m 16,1 km/h (3 Bft) 100,00 %
16.11.2018 04:14 4,3 C 3,9 C 3,3 C 94 % 1024,4 hPa 0,0 l/m 0 min 0 min 0 W/m 16,1 km/h (3 Bft) 93,62 %
16.11.2018 04:16 4,3 C 3,9 C 3,3 C 94 % 1024,4 hPa 0,0 l/m 0 min 0 min 0 W/m 19,3 km/h (3 Bft) 95,65 %
16.11.2018 04:18 4,3 C 3,9 C 3,3 C 94 % 1024,3 hPa 0,0 l/m 0 min 0 min 0 W/m 12,9 km/h (3 Bft) 93,62 %
16.11.2018 04:20 4,3 C 3,9 C 3,3 C 94 % 1024,3 hPa 0,0 l/m 0 min 0 min 0 W/m 16,1 km/h (3 Bft) 97,87 %
16.11.2018 04:22 4,3 C 3,9 C 3,3 C 94 % 1024,2 hPa 0,0 l/m 0 min 0 min 0 W/m 22,5 km/h (4 Bft) 97,87 %
16.11.2018 04:27 4,3 C 3,9 C 3,3 C 94 % 1024,2 hPa 0,0 l/m 0 min 0 min 0 W/m 22,5 km/h (4 Bft) 100,00 %
16.11.2018 04:28 4,3 C 3,9 C 3,3 C 94 % 1024,2 hPa 0,0 l/m 0 min 0 min 0 W/m 9,7 km/h (2 Bft) 100,00 %
16.11.2018 04:30 4,3 C 3,9 C 3,3 C 94 % 1024,2 hPa 0,0 l/m 0 min 0 min 0 W/m 16,1 km/h (3 Bft) 97,87 %
16.11.2018 04:32 4,3 C 3,9 C 3,3 C 94 % 1024,3 hPa 0,0 l/m 0 min 0 min 0 W/m 16,1 km/h (3 Bft) 100,00 %
16.11.2018 04:34 4,3 C 3,9 C 3,3 C 94 % 1024,3 hPa 0,0 l/m 0 min 0 min 0 W/m 12,9 km/h (3 Bft) 100,00 %
16.11.2018 04:36 4,3 C 3,9 C 3,3 C 94 % 1024,4 hPa 0,0 l/m 0 min 0 min 0 W/m 25,7 km/h (4 Bft) 100,00 %
16.11.2018 04:38 4,3 C 3,9 C 3,3 C 94 % 1024,4 hPa 0,0 l/m 0 min 0 min 0 W/m 16,1 km/h (3 Bft) 95,65 %
16.11.2018 04:40 4,3 C 3,9 C 2,8 C 94 % 1024,4 hPa 0,0 l/m 0 min 0 min 0 W/m 12,9 km/h (3 Bft) 100,00 %
16.11.2018 04:42 4,3 C 3,9 C 3,3 C 94 % 1024,6 hPa 0,0 l/m 0 min 0 min 0 W/m 22,5 km/h (4 Bft) 97,87 %
16.11.2018 04:44 4,3 C 3,9 C 3,3 C 94 % 1024,5 hPa 0,0 l/m 0 min 0 min 0 W/m 16,1 km/h (3 Bft) 97,87 %
16.11.2018 04:46 4,3 C 3,9 C 3,3 C 94 % 1024,5 hPa 0,0 l/m 0 min 0 min 0 W/m 9,7 km/h (2 Bft) 95,74 %
16.11.2018 04:48 4,3 C 3,9 C 3,3 C 94 % 1024,4 hPa 0,0 l/m 0 min 0 min 0 W/m 22,5 km/h (4 Bft) 95,74 %
16.11.2018 04:50 4,3 C 3,9 C 3,3 C 94 % 1024,5 hPa 0,0 l/m 0 min 0 min 0 W/m 12,9 km/h (3 Bft) 97,83 %
16.11.2018 04:52 4,3 C 3,9 C 3,3 C 94 % 1024,4 hPa 0,0 l/m 0 min 0 min 0 W/m 16,1 km/h (3 Bft) 100,00 %
16.11.2018 04:54 4,3 C 3,9 C 3,3 C 94 % 1024,5 hPa 0,0 l/m 0 min 0 min 0 W/m 22,5 km/h (4 Bft) 97,87 %
16.11.2018 04:56 4,3 C 3,9 C 3,3 C 94 % 1024,4 hPa 0,0 l/m 0 min 0 min 0 W/m 16,1 km/h (3 Bft) 97,87 %
16.11.2018 04:58 4,3 C 3,9 C 3,3 C 94 % 1024,4 hPa 0,0 l/m 0 min 0 min 0 W/m 16,1 km/h (3 Bft) 97,87 %
16.11.2018 05:00 4,3 C 3,9 C 3,3 C 94 % 1024,5 hPa 0,0 l/m 0 min 0 min 0 W/m 16,1 km/h (3 Bft) 97,87 %
16.11.2018 05:02 4,3 C 3,9 C 3,3 C 94 % 1024,5 hPa 0,0 l/m 0 min 0 min 0 W/m 16,1 km/h (3 Bft) 95,65 %
16.11.2018 05:04 4,3 C 3,9 C 3,3 C 94 % 1024,5 hPa 0,0 l/m 0 min 0 min 0 W/m 19,3 km/h (3 Bft) 97,87 %
16.11.2018 05:05 4,4 C 3,9 C 3,3 C 94 % 1024,7 hPa 0,0 l/m 0 min 0 min 0 W/m 25,7 km/h (4 Bft) 100,00 %
16.11.2018 05:10 4,4 C 3,9 C 3,3 C 94 % 1024,6 hPa 0,0 l/m 0 min 0 min 0 W/m 22,5 km/h (4 Bft) 98,25 %
16.11.2018 05:12 4,4 C 3,9 C 3,3 C 94 % 1024,6 hPa 0,0 l/m 0 min 0 min 0 W/m 12,9 km/h (3 Bft) 97,06 %
16.11.2018 05:14 4,4 C 4,4 C 3,3 C 94 % 1024,5 hPa 0,0 l/m 0 min 0 min 0 W/m 25,7 km/h (4 Bft) 97,87 %
16.11.2018 05:19 4,5 C 4,4 C 3,3 C 94 % 1024,6 hPa 0,0 l/m 0 min 0 min 0 W/m 29,0 km/h (5 Bft) 100,00 %
16.11.2018 05:20 4,5 C 4,4 C 3,3 C 94 % 1024,6 hPa 0,0 l/m 0 min 0 min 0 W/m 22,5 km/h (4 Bft) 100,00 %
16.11.2018 05:22 4,6 C 4,4 C 3,3 C 95 % 1024,5 hPa 0,0 l/m 0 min 0 min 0 W/m 19,3 km/h (3 Bft) 95,74 %
16.11.2018 05:24 4,6 C 4,4 C 3,3 C 95 % 1024,4 hPa 0,0 l/m 0 min 0 min 0 W/m 29,0 km/h (5 Bft) 97,83 %
16.11.2018 05:26 4,6 C 4,4 C 3,3 C 95 % 1024,4 hPa 0,0 l/m 0 min 0 min 0 W/m 22,5 km/h (4 Bft) 97,87 %
16.11.2018 05:28 4,6 C 4,4 C 3,3 C 95 % 1024,5 hPa 0,0 l/m 0 min 0 min 0 W/m 22,5 km/h (4 Bft) 97,87 %
16.11.2018 05:30 4,6 C 4,4 C 3,3 C 95 % 1024,5 hPa 0,0 l/m 0 min 0 min 0 W/m 16,1 km/h (3 Bft) 97,87 %
16.11.2018 05:32 4,7 C 4,4 C 3,3 C 95 % 1024,4 hPa 0,0 l/m 0 min 0 min 0 W/m 25,7 km/h (4 Bft) 100,00 %
16.11.2018 05:34 4,7 C 4,4 C 3,3 C 95 % 1024,6 hPa 0,0 l/m 0 min 0 min 0 W/m 22,5 km/h (4 Bft) 100,00 %
16.11.2018 05:36 4,7 C 4,4 C 3,3 C 95 % 1024,6 hPa 0,0 l/m 0 min 0 min 0 W/m 25,7 km/h (4 Bft) 98,28 %
16.11.2018 05:38 4,7 C 4,4 C 3,3 C 95 % 1024,6 hPa 0,0 l/m 0 min 0 min 0 W/m 19,3 km/h (3 Bft) 100,00 %
16.11.2018 05:40 4,7 C 4,4 C 3,3 C 95 % 1024,6 hPa 0,0 l/m 0 min 0 min 0 W/m 25,7 km/h (4 Bft) 100,00 %
16.11.2018 05:42 4,7 C 4,4 C 3,3 C 95 % 1024,6 hPa 0,0 l/m 0 min 0 min 0 W/m 19,3 km/h (3 Bft) 100,00 %
16.11.2018 05:44 4,7 C 4,4 C 3,3 C 95 % 1024,6 hPa 0,0 l/m 0 min 0 min 0 W/m 9,7 km/h (2 Bft) 97,87 %
16.11.2018 05:46 4,7 C 4,4 C 3,3 C 95 % 1024,7 hPa 0,0 l/m 0 min 0 min 0 W/m 12,9 km/h (3 Bft) 100,00 %
16.11.2018 05:48 4,7 C 3,9 C 3,3 C 94 % 1024,7 hPa 0,0 l/m 0 min 0 min 0 W/m 9,7 km/h (2 Bft) 100,00 %
16.11.2018 05:50 4,7 C 3,9 C 3,3 C 94 % 1024,7 hPa 0,0 l/m 0 min 0 min 0 W/m 12,9 km/h (3 Bft) 100,00 %
16.11.2018 05:52 4,7 C 3,9 C 3,3 C 94 % 1024,6 hPa 0,0 l/m 0 min 0 min 0 W/m 12,9 km/h (3 Bft) 100,00 %
16.11.2018 05:54 4,7 C 3,9 C 3,3 C 94 % 1024,7 hPa 0,0 l/m 0 min 0 min 0 W/m 16,1 km/h (3 Bft) 100,00 %
16.11.2018 05:56 4,7 C 3,9 C 3,3 C 94 % 1024,7 hPa 0,0 l/m 0 min 0 min 0 W/m 22,5 km/h (4 Bft) 97,87 %
16.11.2018 05:58 4,7 C 3,9 C 3,3 C 94 % 1024,7 hPa 0,0 l/m 0 min 0 min 0 W/m 12,9 km/h (3 Bft) 97,83 %
16.11.2018 06:00 4,7 C 4,4 C 3,3 C 94 % 1024,8 hPa 0,0 l/m 0 min 0 min 0 W/m 22,5 km/h (4 Bft) 100,00 %
16.11.2018 06:02 4,7 C 4,4 C 3,3 C 94 % 1024,7 hPa 0,0 l/m 0 min 0 min 0 W/m 25,7 km/h (4 Bft) 100,00 %
16.11.2018 06:04 4,7 C 3,9 C 3,3 C 94 % 1024,8 hPa 0,0 l/m 0 min 0 min 0 W/m 16,1 km/h (3 Bft) 100,00 %
16.11.2018 06:08 4,6 C 3,9 C 3,3 C 94 % 1024,9 hPa 0,0 l/m 0 min 0 min 0 W/m 19,3 km/h (3 Bft) 98,94 %
16.11.2018 06:10 4,6 C 3,9 C 3,3 C 94 % 1024,8 hPa 0,0 l/m 0 min 0 min 0 W/m 22,5 km/h (4 Bft) 100,00 %
16.11.2018 06:12 4,6 C 4,4 C 3,3 C 94 % 1024,8 hPa 0,0 l/m 0 min 0 min 0 W/m 22,5 km/h (4 Bft) 100,00 %
16.11.2018 06:14 4,6 C 4,4 C 3,3 C 94 % 1024,9 hPa 0,0 l/m 0 min 0 min 0 W/m 16,1 km/h (3 Bft) 100,00 %
16.11.2018 06:16 4,7 C 4,4 C 3,3 C 94 % 1024,8 hPa 0,0 l/m 0 min 0 min 0 W/m 9,7 km/h (2 Bft) 100,00 %
16.11.2018 06:18 4,7 C 4,4 C 3,3 C 94 % 1024,9 hPa 0,0 l/m 0 min 0 min 0 W/m 16,1 km/h (3 Bft) 100,00 %
16.11.2018 06:20 4,7 C 4,4 C 3,3 C 94 % 1024,9 hPa 0,0 l/m 0 min 0 min 0 W/m 9,7 km/h (2 Bft) 97,87 %
16.11.2018 06:22 4,7 C 3,9 C 3,3 C 94 % 1024,9 hPa 0,0 l/m 0 min 0 min 0 W/m 9,7 km/h (2 Bft) 97,83 %
16.11.2018 06:24 4,7 C 3,9 C 3,3 C 94 % 1024,9 hPa 0,0 l/m 0 min 0 min 0 W/m 12,9 km/h (3 Bft) 100,00 %
16.11.2018 06:26 4,6 C 3,9 C 3,3 C 94 % 1024,9 hPa 0,0 l/m 0 min 0 min 0 W/m 12,9 km/h (3 Bft) 95,74 %
16.11.2018 06:28 4,6 C 3,9 C 3,3 C 94 % 1024,9 hPa 0,0 l/m 0 min 0 min 0 W/m 16,1 km/h (3 Bft) 97,87 %
16.11.2018 06:30 4,6 C 3,9 C 3,3 C 94 % 1024,9 hPa 0,0 l/m 0 min 0 min 0 W/m 9,7 km/h (2 Bft) 97,87 %
16.11.2018 06:32 4,6 C 3,9 C 3,3 C 94 % 1024,9 hPa 0,0 l/m 0 min 0 min 0 W/m 16,1 km/h (3 Bft) 100,00 %
16.11.2018 06:34 4,6 C 3,9 C 3,3 C 94 % 1024,9 hPa 0,0 l/m 0 min 0 min 0 W/m 16,1 km/h (3 Bft) 97,83 %
16.11.2018 06:36 4,6 C 3,9 C 3,3 C 94 % 1024,9 hPa 0,0 l/m 0 min 0 min 0 W/m 9,7 km/h (2 Bft) 100,00 %
16.11.2018 06:38 4,6 C 3,9 C 3,3 C 94 % 1024,8 hPa 0,0 l/m 0 min 0 min 0 W/m 3,2 km/h (1 Bft) 97,14 %
16.11.2018 06:40 4,6 C 3,9 C 3,3 C 94 % 1024,9 hPa 0,0 l/m 0 min 0 min 0 W/m 12,9 km/h (3 Bft) 95,74 %
16.11.2018 06:42 4,6 C 3,9 C 3,3 C 94 % 1024,9 hPa 0,0 l/m 0 min 0 min 0 W/m 16,1 km/h (3 Bft) 97,87 %
16.11.2018 06:44 4,6 C 3,9 C 3,3 C 94 % 1024,9 hPa 0,0 l/m 0 min 0 min 0 W/m 16,1 km/h (3 Bft) 97,87 %
16.11.2018 06:46 4,6 C 3,9 C 3,3 C 94 % 1024,9 hPa 0,0 l/m 0 min 0 min 0 W/m 12,9 km/h (3 Bft) 97,83 %
16.11.2018 06:48 4,6 C 3,9 C 3,3 C 94 % 1025,0 hPa 0,0 l/m 0 min 0 min 0 W/m 22,5 km/h (4 Bft) 97,87 %
16.11.2018 06:50 4,5 C 3,9 C 3,3 C 94 % 1024,9 hPa 0,0 l/m 0 min 0 min 0 W/m 9,7 km/h (2 Bft) 97,87 %
16.11.2018 06:52 4,5 C 3,9 C 3,3 C 94 % 1024,9 hPa 0,0 l/m 0 min 0 min 0 W/m 16,1 km/h (3 Bft) 93,62 %
16.11.2018 06:54 4,5 C 3,9 C 3,3 C 94 % 1024,9 hPa 0,0 l/m 0 min 0 min 0 W/m 16,1 km/h (3 Bft) 97,87 %
16.11.2018 06:56 4,5 C 3,9 C 3,3 C 94 % 1024,9 hPa 0,0 l/m 0 min 0 min 0 W/m 16,1 km/h (3 Bft) 97,87 %
16.11.2018 06:58 4,5 C 3,9 C 3,3 C 94 % 1024,9 hPa 0,0 l/m 0 min 0 min 0 W/m 16,1 km/h (3 Bft) 97,83 %
16.11.2018 07:00 4,5 C 3,9 C 3,3 C 94 % 1025,0 hPa 0,0 l/m 0 min 0 min 0 W/m 12,9 km/h (3 Bft) 97,87 %
16.11.2018 07:02 4,5 C 3,9 C 3,3 C 94 % 1025,0 hPa 0,0 l/m 0 min 0 min 0 W/m 12,9 km/h (3 Bft) 97,87 %
16.11.2018 07:04 4,5 C 3,9 C 3,3 C 94 % 1025,0 hPa 0,0 l/m 0 min 0 min 0 W/m 16,1 km/h (3 Bft) 95,74 %
16.11.2018 07:06 4,5 C 3,9 C 3,3 C 94 % 1025,0 hPa 0,0 l/m 0 min 0 min 0 W/m 9,7 km/h (2 Bft) 96,55 %
16.11.2018 07:08 4,5 C 3,9 C 3,3 C 94 % 1025,0 hPa 0,0 l/m 0 min 0 min 0 W/m 22,5 km/h (4 Bft) 95,24 %
16.11.2018 07:10 4,5 C 4,4 C 3,3 C 94 % 1025,1 hPa 0,0 l/m 0 min 0 min 0 W/m 19,3 km/h (3 Bft) 95,74 %
16.11.2018 07:12 4,6 C 4,4 C 3,3 C 94 % 1025,0 hPa 0,0 l/m 0 min 0 min 0 W/m 22,5 km/h (4 Bft) 95,74 %
16.11.2018 07:14 4,6 C 4,4 C 3,3 C 94 % 1024,9 hPa 0,0 l/m 0 min 0 min 0 W/m 19,3 km/h (3 Bft) 95,74 %
16.11.2018 07:16 4,6 C 4,4 C 3,3 C 94 % 1025,0 hPa 0,0 l/m 0 min 0 min 0 W/m 19,3 km/h (3 Bft) 95,74 %
16.11.2018 07:18 4,6 C 4,4 C 3,3 C 94 % 1025,0 hPa 0,0 l/m 0 min 0 min 0 W/m 16,1 km/h (3 Bft) 95,65 %
16.11.2018 07:20 4,6 C 4,4 C 3,3 C 94 % 1025,0 hPa 0,0 l/m 0 min 0 min 0 W/m 22,5 km/h (4 Bft) 93,62 %
16.11.2018 07:22 4,6 C 4,4 C 3,3 C 94 % 1025,1 hPa 0,0 l/m 0 min 0 min 0 W/m 19,3 km/h (3 Bft) 91,49 %
16.11.2018 07:24 4,6 C 4,4 C 3,3 C 94 % 1025,1 hPa 0,0 l/m 0 min 0 min 0 W/m 16,1 km/h (3 Bft) 97,87 %
16.11.2018 07:26 4,6 C 4,4 C 3,3 C 94 % 1025,2 hPa 0,0 l/m 0 min 0 min 0 W/m 12,9 km/h (3 Bft) 93,62 %
16.11.2018 07:28 4,6 C 4,4 C 3,3 C 94 % 1025,2 hPa 0,0 l/m 0 min 0 min 0 W/m 16,1 km/h (3 Bft) 93,62 %
16.11.2018 07:30 4,6 C 4,4 C 3,3 C 94 % 1025,2 hPa 0,0 l/m 0 min 0 min 0 W/m 16,1 km/h (3 Bft) 95,65 %
16.11.2018 07:32 4,6 C 4,4 C 3,3 C 94 % 1025,3 hPa 0,0 l/m 0 min 0 min 0 W/m 16,1 km/h (3 Bft) 93,62 %
16.11.2018 07:34 4,6 C 4,4 C 3,3 C 94 % 1025,3 hPa 0,0 l/m 0 min 0 min 0 W/m 9,7 km/h (2 Bft) 95,74 %
16.11.2018 07:36 4,6 C 3,9 C 3,3 C 94 % 1025,3 hPa 0,0 l/m 0 min 0 min 0 W/m 16,1 km/h (3 Bft) 94,92 %
16.11.2018 07:38 4,6 C 3,9 C 3,3 C 94 % 1025,4 hPa 0,0 l/m 0 min 0 min 0 W/m 16,1 km/h (3 Bft) 94,29 %
16.11.2018 07:40 4,6 C 3,9 C 3,3 C 94 % 1025,4 hPa 0,0 l/m 0 min 0 min 0 W/m 9,7 km/h (2 Bft) 95,74 %
16.11.2018 07:42 4,6 C 3,9 C 3,3 C 94 % 1025,6 hPa 0,0 l/m 0 min 0 min 0 W/m 9,7 km/h (2 Bft) 95,65 %
16.11.2018 07:44 4,6 C 3,9 C 3,3 C 94 % 1025,5 hPa 0,0 l/m 0 min 0 min 0 W/m 12,9 km/h (3 Bft) 95,74 %
16.11.2018 07:46 4,6 C 3,9 C 3,3 C 94 % 1025,6 hPa 0,0 l/m 0 min 0 min 0 W/m 6,4 km/h (2 Bft) 95,74 %
16.11.2018 07:48 4,6 C 3,9 C 3,3 C 94 % 1025,5 hPa 0,0 l/m 0 min 0 min 0 W/m 12,9 km/h (3 Bft) 95,74 %
16.11.2018 07:50 4,6 C 3,9 C 3,3 C 94 % 1025,5 hPa 0,0 l/m 0 min 0 min 0 W/m 12,9 km/h (3 Bft) 95,74 %
16.11.2018 07:52 4,6 C 3,9 C 3,3 C 94 % 1025,4 hPa 0,0 l/m 0 min 0 min 0 W/m 6,4 km/h (2 Bft) 95,65 %
16.11.2018 07:54 4,6 C 3,9 C 3,3 C 93 % 1025,4 hPa 0,0 l/m 0 min 0 min 3 W/m 16,1 km/h (3 Bft) 95,74 %
16.11.2018 07:56 4,6 C 3,9 C 3,3 C 93 % 1025,4 hPa 0,0 l/m 0 min 0 min 5 W/m 16,1 km/h (3 Bft) 93,62 %
16.11.2018 07:58 4,5 C 3,9 C 3,3 C 93 % 1025,4 hPa 0,0 l/m 0 min 0 min 5 W/m 12,9 km/h (3 Bft) 95,74 %
16.11.2018 08:00 4,5 C 3,9 C 3,3 C 93 % 1025,4 hPa 0,0 l/m 0 min 0 min 6 W/m 9,7 km/h (2 Bft) 95,74 %
16.11.2018 08:02 4,5 C 3,9 C 3,3 C 93 % 1025,5 hPa 0,0 l/m 0 min 0 min 7 W/m 16,1 km/h (3 Bft) 95,74 %
16.11.2018 08:04 4,5 C 3,9 C 3,3 C 93 % 1025,6 hPa 0,0 l/m 0 min 0 min 8 W/m 9,7 km/h (2 Bft) 95,74 %
16.11.2018 08:06 4,5 C 3,9 C 3,3 C 93 % 1025,6 hPa 0,0 l/m 0 min 0 min 9 W/m 6,4 km/h (2 Bft) 95,74 %
16.11.2018 08:08 4,5 C 3,9 C 3,3 C 93 % 1025,6 hPa 0,0 l/m 0 min 0 min 11 W/m 6,4 km/h (2 Bft) 93,62 %
16.11.2018 08:10 4,5 C 3,9 C 3,3 C 93 % 1025,6 hPa 0,0 l/m 0 min 0 min 11 W/m 6,4 km/h (2 Bft) 97,87 %
16.11.2018 08:12 4,4 C 3,9 C 3,3 C 93 % 1025,7 hPa 0,0 l/m 0 min 0 min 12 W/m 9,7 km/h (2 Bft) 95,74 %
16.11.2018 08:14 4,4 C 3,9 C 2,8 C 93 % 1025,7 hPa 0,0 l/m 0 min 0 min 12 W/m 6,4 km/h (2 Bft) 97,87 %
16.11.2018 08:16 4,4 C 3,9 C 2,8 C 93 % 1025,6 hPa 0,0 l/m 0 min 0 min 14 W/m 9,7 km/h (2 Bft) 97,83 %
16.11.2018 08:18 4,4 C 3,9 C 3,3 C 93 % 1025,7 hPa 0,0 l/m 0 min 0 min 14 W/m 9,7 km/h (2 Bft) 97,87 %
16.11.2018 08:20 4,4 C 3,9 C 3,3 C 93 % 1025,6 hPa 0,0 l/m 0 min 0 min 16 W/m 9,7 km/h (2 Bft) 97,87 %
16.11.2018 08:22 4,4 C 3,9 C 3,3 C 93 % 1025,6 hPa 0,0 l/m 0 min 0 min 16 W/m 9,7 km/h (2 Bft) 97,87 %
16.11.2018 08:24 4,4 C 4,4 C 3,3 C 93 % 1025,6 hPa 0,0 l/m 0 min 0 min 18 W/m 9,7 km/h (2 Bft) 100,00 %
16.11.2018 08:26 4,4 C 4,4 C 3,3 C 93 % 1025,6 hPa 0,0 l/m 0 min 0 min 18 W/m 9,7 km/h (2 Bft) 97,83 %
16.11.2018 08:28 4,4 C 4,4 C 3,3 C 93 % 1025,6 hPa 0,0 l/m 0 min 0 min 19 W/m 16,1 km/h (3 Bft) 100,00 %
16.11.2018 08:30 4,4 C 4,4 C 3,3 C 93 % 1025,6 hPa 0,0 l/m 0 min 0 min 20 W/m 9,7 km/h (2 Bft) 100,00 %
16.11.2018 08:32 4,4 C 4,4 C 3,3 C 93 % 1025,7 hPa 0,0 l/m 0 min 0 min 22 W/m 9,7 km/h (2 Bft) 100,00 %
16.11.2018 08:34 4,4 C 4,4 C 3,3 C 93 % 1025,8 hPa 0,0 l/m 0 min 0 min 23 W/m 12,9 km/h (3 Bft) 97,87 %
16.11.2018 08:36 4,4 C 4,4 C 3,3 C 93 % 1025,8 hPa 0,0 l/m 0 min 0 min 24 W/m 9,7 km/h (2 Bft) 97,87 %
16.11.2018 08:38 4,5 C 4,4 C 3,3 C 93 % 1025,8 hPa 0,0 l/m 0 min 0 min 25 W/m 6,4 km/h (2 Bft) 100,00 %
16.11.2018 08:40 4,5 C 4,4 C 3,3 C 93 % 1025,9 hPa 0,0 l/m 0 min 0 min 25 W/m 16,1 km/h (3 Bft) 100,00 %
16.11.2018 08:42 4,5 C 4,4 C 3,3 C 93 % 1026,0 hPa 0,0 l/m 0 min 0 min 26 W/m 9,7 km/h (2 Bft) 97,87 %
16.11.2018 08:44 4,6 C 4,4 C 3,3 C 93 % 1026,0 hPa 0,0 l/m 0 min 0 min 27 W/m 9,7 km/h (2 Bft) 100,00 %
16.11.2018 08:46 4,6 C 5,0 C 3,9 C 93 % 1026,0 hPa 0,0 l/m 0 min 0 min 28 W/m 16,1 km/h (3 Bft) 95,74 %
16.11.2018 08:48 4,6 C 5,0 C 3,9 C 93 % 1026,0 hPa 0,0 l/m 0 min 0 min 29 W/m 9,7 km/h (2 Bft) 97,87 %
16.11.2018 08:50 4,6 C 5,0 C 3,9 C 93 % 1026,0 hPa 0,0 l/m 0 min 0 min 30 W/m 9,7 km/h (2 Bft) 100,00 %
16.11.2018 08:52 4,7 C 5,0 C 3,9 C 93 % 1026,0 hPa 0,0 l/m 0 min 0 min 32 W/m 12,9 km/h (3 Bft) 100,00 %
16.11.2018 08:54 4,7 C 5,0 C 3,9 C 93 % 1026,0 hPa 0,0 l/m 0 min 0 min 32 W/m 9,7 km/h (2 Bft) 100,00 %
16.11.2018 08:56 4,7 C 5,0 C 3,9 C 93 % 1026,1 hPa 0,0 l/m 0 min 0 min 33 W/m 16,1 km/h (3 Bft) 100,00 %
16.11.2018 08:58 4,8 C 5,0 C 3,9 C 93 % 1026,1 hPa 0,0 l/m 0 min 0 min 34 W/m 16,1 km/h (3 Bft) 97,87 %
16.11.2018 09:00 4,8 C 5,0 C 3,9 C 93 % 1026,0 hPa 0,0 l/m 0 min 0 min 40 W/m 16,1 km/h (3 Bft) 100,00 %
16.11.2018 09:02 4,9 C 5,6 C 4,4 C 93 % 1026,1 hPa 0,0 l/m 2 min 0 min 79 W/m 22,5 km/h (4 Bft) 100,00 %
16.11.2018 09:04 4,9 C 6,7 C 4,4 C 93 % 1026,1 hPa 0,0 l/m 2 min 0 min 95 W/m 16,1 km/h (3 Bft) 100,00 %
16.11.2018 09:06 5,0 C 7,2 C 4,4 C 93 % 1025,9 hPa 0,0 l/m 2 min 0 min 99 W/m 22,5 km/h (4 Bft) 100,00 %
16.11.2018 09:08 5,1 C 7,2 C 4,4 C 93 % 1025,9 hPa 0,0 l/m 2 min 0 min 105 W/m 22,5 km/h (4 Bft) 100,00 %
16.11.2018 09:10 5,2 C 6,7 C 4,4 C 93 % 1025,9 hPa 0,0 l/m 2 min 0 min 108 W/m 29,0 km/h (5 Bft) 100,00 %
16.11.2018 09:12 5,3 C 6,1 C 4,4 C 93 % 1025,9 hPa 0,0 l/m 2 min 0 min 113 W/m 25,7 km/h (4 Bft) 100,00 %
16.11.2018 09:14 5,3 C 6,7 C 4,4 C 93 % 1025,9 hPa 0,0 l/m 2 min 0 min 117 W/m 22,5 km/h (4 Bft) 100,00 %
16.11.2018 09:16 5,4 C 7,2 C 4,4 C 93 % 1025,9 hPa 0,0 l/m 2 min 0 min 122 W/m 19,3 km/h (3 Bft) 97,87 %
16.11.2018 09:18 5,5 C 7,8 C 4,4 C 93 % 1025,8 hPa 0,0 l/m 2 min 0 min 127 W/m 29,0 km/h (5 Bft) 100,00 %
16.11.2018 09:20 5,6 C 7,8 C 4,4 C 93 % 1025,9 hPa 0,0 l/m 2 min 0 min 132 W/m 22,5 km/h (4 Bft) 100,00 %
16.11.2018 09:22 5,7 C 7,8 C 4,4 C 93 % 1026,0 hPa 0,0 l/m 2 min 0 min 136 W/m 19,3 km/h (3 Bft) 100,00 %
16.11.2018 09:24 5,8 C 7,8 C 5,0 C 92 % 1025,8 hPa 0,0 l/m 2 min 0 min 140 W/m 29,0 km/h (5 Bft) 100,00 %
16.11.2018 09:26 5,8 C 7,8 C 5,0 C 92 % 1025,9 hPa 0,0 l/m 2 min 0 min 144 W/m 32,2 km/h (5 Bft) 100,00 %
16.11.2018 09:28 5,9 C 7,8 C 5,0 C 92 % 1025,9 hPa 0,0 l/m 2 min 0 min 147 W/m 22,5 km/h (4 Bft) 100,00 %
16.11.2018 09:30 6,0 C 8,3 C 5,0 C 92 % 1026,0 hPa 0,0 l/m 2 min 0 min 152 W/m 22,5 km/h (4 Bft) 97,87 %
16.11.2018 09:32 6,1 C 8,3 C 5,0 C 92 % 1026,0 hPa 0,0 l/m 2 min 0 min 157 W/m 22,5 km/h (4 Bft) 97,87 %
16.11.2018 09:34 6,2 C 8,3 C 5,0 C 91 % 1026,1 hPa 0,0 l/m 2 min 0 min 163 W/m 32,2 km/h (5 Bft) 100,00 %
16.11.2018 09:36 6,2 C 8,3 C 5,0 C 91 % 1026,2 hPa 0,0 l/m 2 min 0 min 168 W/m 19,3 km/h (3 Bft) 100,00 %
16.11.2018 09:38 6,3 C 8,3 C 5,0 C 91 % 1026,2 hPa 0,0 l/m 2 min 0 min 173 W/m 9,7 km/h (2 Bft) 100,00 %
16.11.2018 09:40 6,3 C 7,2 C 5,0 C 91 % 1026,2 hPa 0,0 l/m 2 min 0 min 177 W/m 16,1 km/h (3 Bft) 100,00 %
16.11.2018 09:42 6,4 C 6,7 C 5,0 C 90 % 1026,2 hPa 0,0 l/m 2 min 0 min 176 W/m 25,7 km/h (4 Bft) 97,87 %
16.11.2018 09:44 6,4 C 6,7 C 5,0 C 90 % 1026,2 hPa 0,0 l/m 2 min 0 min 162 W/m 25,7 km/h (4 Bft) 100,00 %
16.11.2018 09:46 6,4 C 6,1 C 5,0 C 90 % 1026,2 hPa 0,0 l/m 2 min 0 min 157 W/m 16,1 km/h (3 Bft) 97,87 %
16.11.2018 09:48 6,4 C 6,7 C 5,0 C 89 % 1026,2 hPa 0,0 l/m 2 min 0 min 140 W/m 32,2 km/h (5 Bft) 100,00 %
16.11.2018 09:50 6,4 C 6,1 C 5,0 C 89 % 1026,2 hPa 0,0 l/m 2 min 0 min 127 W/m 29,0 km/h (5 Bft) 100,00 %
16.11.2018 09:52 6,5 C 6,7 C 5,6 C 89 % 1026,2 hPa 0,0 l/m 2 min 0 min 150 W/m 25,7 km/h (4 Bft) 95,74 %
16.11.2018 09:54 6,5 C 7,8 C 5,6 C 89 % 1026,2 hPa 0,0 l/m 2 min 0 min 175 W/m 32,2 km/h (5 Bft) 97,87 %
16.11.2018 09:56 6,5 C 7,8 C 5,6 C 89 % 1026,3 hPa 0,0 l/m 2 min 0 min 209 W/m 22,5 km/h (4 Bft) 100,00 %
16.11.2018 09:58 6,6 C 8,3 C 5,6 C 89 % 1026,2 hPa 0,0 l/m 2 min 0 min 214 W/m 29,0 km/h (5 Bft) 100,00 %
16.11.2018 10:00 6,6 C 8,9 C 5,6 C 89 % 1026,2 hPa 0,0 l/m 2 min 0 min 221 W/m 25,7 km/h (4 Bft) 97,83 %
16.11.2018 10:02 6,6 C 8,9 C 5,6 C 89 % 1026,2 hPa 0,0 l/m 2 min 0 min 224 W/m 25,7 km/h (4 Bft) 95,74 %
16.11.2018 10:04 6,7 C 9,4 C 5,6 C 89 % 1026,1 hPa 0,0 l/m 2 min 0 min 228 W/m 32,2 km/h (5 Bft) 95,74 %
16.11.2018 10:06 6,8 C 8,9 C 5,6 C 88 % 1026,2 hPa 0,0 l/m 2 min 0 min 232 W/m 41,8 km/h (6 Bft) 95,74 %
16.11.2018 10:08 6,8 C 9,4 C 5,6 C 88 % 1026,2 hPa 0,0 l/m 2 min 0 min 235 W/m 32,2 km/h (5 Bft) 97,87 %
16.11.2018 10:10 6,9 C 9,4 C 5,6 C 88 % 1026,2 hPa 0,0 l/m 2 min 0 min 241 W/m 32,2 km/h (5 Bft) 95,74 %
16.11.2018 10:12 6,9 C 10,0 C 5,6 C 88 % 1026,3 hPa 0,0 l/m 2 min 0 min 245 W/m 25,7 km/h (4 Bft) 93,48 %
16.11.2018 10:14 7,0 C 10,0 C 5,6 C 88 % 1026,3 hPa 0,0 l/m 2 min 0 min 247 W/m 22,5 km/h (4 Bft) 93,62 %
16.11.2018 10:16 7,1 C 9,4 C 5,6 C 88 % 1026,3 hPa 0,0 l/m 2 min 0 min 251 W/m 38,6 km/h (5 Bft) 93,62 %
16.11.2018 10:18 7,2 C 9,4 C 5,6 C 87 % 1026,4 hPa 0,0 l/m 2 min 0 min 253 W/m 29,0 km/h (5 Bft) 93,62 %
16.11.2018 10:20 7,2 C 9,4 C 5,6 C 87 % 1026,4 hPa 0,0 l/m 2 min 0 min 257 W/m 25,7 km/h (4 Bft) 93,62 %
16.11.2018 10:22 7,3 C 10,0 C 5,6 C 87 % 1026,4 hPa 0,0 l/m 2 min 0 min 258 W/m 22,5 km/h (4 Bft) 93,62 %
16.11.2018 10:24 7,3 C 10,0 C 5,6 C 86 % 1026,4 hPa 0,0 l/m 2 min 0 min 257 W/m 25,7 km/h (4 Bft) 93,48 %
16.11.2018 10:26 7,4 C 10,0 C 5,6 C 86 % 1026,5 hPa 0,0 l/m 2 min 0 min 260 W/m 29,0 km/h (5 Bft) 93,62 %
16.11.2018 10:28 7,4 C 9,4 C 5,6 C 86 % 1026,5 hPa 0,0 l/m 2 min 0 min 250 W/m 41,8 km/h (6 Bft) 95,74 %
16.11.2018 10:30 7,4 C 9,4 C 5,6 C 86 % 1026,6 hPa 0,0 l/m 2 min 0 min 230 W/m 25,7 km/h (4 Bft) 93,62 %
16.11.2018 10:32 7,4 C 9,4 C 6,1 C 85 % 1026,7 hPa 0,0 l/m 2 min 0 min 241 W/m 29,0 km/h (5 Bft) 91,49 %
16.11.2018 10:34 7,5 C 9,4 C 6,1 C 85 % 1026,6 hPa 0,0 l/m 2 min 0 min 181 W/m 25,7 km/h (4 Bft) 93,62 %
16.11.2018 10:36 7,5 C 8,9 C 6,1 C 85 % 1026,6 hPa 0,0 l/m 2 min 0 min 224 W/m 32,2 km/h (5 Bft) 93,48 %
16.11.2018 10:38 7,6 C 8,9 C 6,1 C 85 % 1026,7 hPa 0,0 l/m 2 min 0 min 202 W/m 22,5 km/h (4 Bft) 93,75 %
16.11.2018 10:40 7,6 C 8,9 C 6,1 C 85 % 1026,6 hPa 0,0 l/m 2 min 0 min 159 W/m 25,7 km/h (4 Bft) 93,62 %
16.11.2018 10:42 7,6 C 10,0 C 6,1 C 85 % 1026,6 hPa 0,0 l/m 2 min 0 min 191 W/m 22,5 km/h (4 Bft) 95,74 %
16.11.2018 10:44 7,7 C 10,0 C 6,1 C 85 % 1026,6 hPa 0,0 l/m 2 min 0 min 181 W/m 35,4 km/h (5 Bft) 95,74 %
16.11.2018 10:46 7,7 C 10,0 C 6,1 C 85 % 1026,6 hPa 0,0 l/m 2 min 0 min 247 W/m 25,7 km/h (4 Bft) 93,48 %
16.11.2018 10:48 7,7 C 9,4 C 6,1 C 85 % 1026,6 hPa 0,0 l/m 2 min 0 min 204 W/m 25,7 km/h (4 Bft) 93,62 %
16.11.2018 10:50 7,7 C 10,0 C 6,1 C 85 % 1026,7 hPa 0,0 l/m 2 min 0 min 203 W/m 41,8 km/h (6 Bft) 95,74 %
16.11.2018 10:52 7,8 C 10,0 C 6,1 C 84 % 1026,7 hPa 0,0 l/m 2 min 0 min 215 W/m 32,2 km/h (5 Bft) 97,87 %
16.11.2018 10:54 7,8 C 10,6 C 6,1 C 84 % 1026,6 hPa 0,0 l/m 2 min 0 min 221 W/m 22,5 km/h (4 Bft) 97,87 %
16.11.2018 10:56 7,8 C 10,6 C 6,7 C 84 % 1026,6 hPa 0,0 l/m 2 min 0 min 220 W/m 12,9 km/h (3 Bft) 97,87 %
16.11.2018 10:58 7,9 C 10,6 C 6,7 C 85 % 1026,6 hPa 0,0 l/m 2 min 0 min 257 W/m 16,1 km/h (3 Bft) 95,65 %
16.11.2018 11:00 7,9 C 10,6 C 6,7 C 84 % 1026,6 hPa 0,0 l/m 2 min 0 min 196 W/m 22,5 km/h (4 Bft) 97,87 %
16.11.2018 11:02 8,0 C 11,1 C 6,7 C 84 % 1026,7 hPa 0,0 l/m 2 min 0 min 202 W/m 16,1 km/h (3 Bft) 97,87 %
16.11.2018 11:04 8,1 C 11,7 C 6,7 C 84 % 1026,6 hPa 0,0 l/m 2 min 0 min 271 W/m 19,3 km/h (3 Bft) 97,87 %
16.11.2018 11:06 8,2 C 11,1 C 6,7 C 84 % 1026,7 hPa 0,0 l/m 2 min 0 min 281 W/m 16,1 km/h (3 Bft) 91,49 %
16.11.2018 11:08 8,2 C 11,7 C 6,7 C 84 % 1026,7 hPa 0,0 l/m 2 min 0 min 299 W/m 22,5 km/h (4 Bft) 95,74 %
16.11.2018 11:10 8,3 C 12,2 C 6,7 C 83 % 1026,7 hPa 0,0 l/m 2 min 0 min 312 W/m 16,1 km/h (3 Bft) 95,65 %
16.11.2018 11:12 8,4 C 12,2 C 6,7 C 83 % 1026,7 hPa 0,0 l/m 2 min 0 min 316 W/m 29,0 km/h (5 Bft) 97,87 %
16.11.2018 11:14 8,4 C 12,2 C 6,7 C 83 % 1026,7 hPa 0,0 l/m 2 min 0 min 319 W/m 19,3 km/h (3 Bft) 97,87 %
16.11.2018 11:16 8,5 C 12,2 C 6,7 C 82 % 1026,7 hPa 0,0 l/m 2 min 0 min 325 W/m 25,7 km/h (4 Bft) 97,87 %
16.11.2018 11:18 8,6 C 12,2 C 7,2 C 82 % 1026,7 hPa 0,0 l/m 2 min 0 min 326 W/m 22,5 km/h (4 Bft) 97,87 %
16.11.2018 11:20 8,7 C 12,8 C 7,2 C 82 % 1026,7 hPa 0,0 l/m 2 min 0 min 329 W/m 19,3 km/h (3 Bft) 97,87 %
16.11.2018 11:22 8,7 C 12,8 C 7,2 C 82 % 1026,6 hPa 0,0 l/m 2 min 0 min 331 W/m 25,7 km/h (4 Bft) 95,65 %
16.11.2018 11:24 8,8 C 13,3 C 7,2 C 82 % 1026,7 hPa 0,0 l/m 2 min 0 min 333 W/m 16,1 km/h (3 Bft) 97,87 %
16.11.2018 11:26 8,8 C 12,8 C 7,2 C 82 % 1026,7 hPa 0,0 l/m 2 min 0 min 335 W/m 25,7 km/h (4 Bft) 97,87 %
16.11.2018 11:28 8,9 C 12,2 C 7,2 C 81 % 1026,7 hPa 0,0 l/m 2 min 0 min 337 W/m 35,4 km/h (5 Bft) 97,87 %
16.11.2018 11:30 9,0 C 12,8 C 7,2 C 81 % 1026,6 hPa 0,0 l/m 2 min 0 min 340 W/m 16,1 km/h (3 Bft) 97,87 %
16.11.2018 11:32 9,0 C 12,2 C 7,2 C 81 % 1026,6 hPa 0,0 l/m 2 min 0 min 339 W/m 32,2 km/h (5 Bft) 97,87 %
16.11.2018 11:34 9,1 C 12,8 C 7,2 C 80 % 1026,7 hPa 0,0 l/m 2 min 0 min 340 W/m 19,3 km/h (3 Bft) 97,87 %
16.11.2018 11:36 9,1 C 12,8 C 7,2 C 80 % 1026,7 hPa 0,0 l/m 2 min 0 min 345 W/m 22,5 km/h (4 Bft) 95,65 %
16.11.2018 11:38 9,2 C 13,3 C 7,2 C 80 % 1026,7 hPa 0,0 l/m 2 min 0 min 344 W/m 12,9 km/h (3 Bft) 95,74 %
16.11.2018 11:40 9,2 C 12,8 C 7,2 C 80 % 1026,7 hPa 0,0 l/m 2 min 0 min 346 W/m 29,0 km/h (5 Bft) 97,87 %
16.11.2018 11:42 9,2 C 13,3 C 7,2 C 80 % 1026,8 hPa 0,0 l/m 2 min 0 min 348 W/m 19,3 km/h (3 Bft) 97,87 %
16.11.2018 11:44 9,3 C 12,8 C 7,2 C 79 % 1026,7 hPa 0,0 l/m 2 min 0 min 348 W/m 25,7 km/h (4 Bft) 97,87 %
16.11.2018 11:46 9,3 C 12,8 C 7,2 C 79 % 1026,6 hPa 0,0 l/m 2 min 0 min 347 W/m 22,5 km/h (4 Bft) 97,83 %
16.11.2018 11:48 9,3 C 12,8 C 7,2 C 79 % 1026,6 hPa 0,0 l/m 2 min 0 min 349 W/m 22,5 km/h (4 Bft) 95,74 %
16.11.2018 11:50 9,3 C 11,7 C 7,2 C 79 % 1026,6 hPa 0,0 l/m 2 min 0 min 331 W/m 19,3 km/h (3 Bft) 95,74 %
16.11.2018 11:52 9,3 C 11,7 C 7,2 C 79 % 1026,5 hPa 0,0 l/m 2 min 0 min 322 W/m 16,1 km/h (3 Bft) 97,87 %
16.11.2018 11:54 9,3 C 12,2 C 7,8 C 79 % 1026,5 hPa 0,0 l/m 2 min 0 min 347 W/m 22,5 km/h (4 Bft) 97,87 %
16.11.2018 11:56 9,4 C 12,8 C 7,8 C 79 % 1026,5 hPa 0,0 l/m 2 min 0 min 355 W/m 19,3 km/h (3 Bft) 95,74 %
16.11.2018 11:58 9,4 C 12,8 C 7,8 C 79 % 1026,5 hPa 0,0 l/m 2 min 0 min 357 W/m 19,3 km/h (3 Bft) 97,83 %
16.11.2018 12:00 9,5 C 13,9 C 7,8 C 79 % 1026,5 hPa 0,0 l/m 2 min 0 min 358 W/m 16,1 km/h (3 Bft) 97,87 %
16.11.2018 12:02 9,6 C 13,9 C 7,8 C 79 % 1026,5 hPa 0,0 l/m 2 min 0 min 359 W/m 16,1 km/h (3 Bft) 97,87 %
16.11.2018 12:04 9,6 C 13,9 C 7,8 C 79 % 1026,5 hPa 0,0 l/m 2 min 0 min 358 W/m 16,1 km/h (3 Bft) 97,87 %
16.11.2018 12:08 9,8 C 13,9 C 8,3 C 79 % 1026,4 hPa 0,0 l/m 4 min 0 min 359 W/m 29,0 km/h (5 Bft) 96,81 %
16.11.2018 12:10 9,8 C 13,3 C 9,4 C 78 % 1026,4 hPa 0,0 l/m 2 min 0 min 359 W/m 22,5 km/h (4 Bft) 97,87 %
16.11.2018 12:12 9,9 C 13,9 C 11,1 C 78 % 1026,4 hPa 0,0 l/m 2 min 0 min 360 W/m 22,5 km/h (4 Bft) 97,87 %
16.11.2018 12:14 9,9 C 13,9 C 11,7 C 77 % 1026,4 hPa 0,0 l/m 2 min 0 min 360 W/m 29,0 km/h (5 Bft) 97,87 %
16.11.2018 12:16 9,9 C 13,9 C 10,6 C 77 % 1026,4 hPa 0,0 l/m 2 min 0 min 359 W/m 19,3 km/h (3 Bft) 97,87 %
16.11.2018 12:18 10,0 C 13,9 C 9,4 C 76 % 1026,4 hPa 0,0 l/m 2 min 0 min 359 W/m 29,0 km/h (5 Bft) 97,87 %
16.11.2018 12:20 10,0 C 13,3 C 8,9 C 76 % 1026,4 hPa 0,0 l/m 2 min 0 min 360 W/m 25,7 km/h (4 Bft) 91,30 %
16.11.2018 12:22 10,1 C 13,3 C 8,9 C 76 % 1026,4 hPa 0,0 l/m 2 min 0 min 360 W/m 25,7 km/h (4 Bft) 93,62 %
16.11.2018 12:24 10,1 C 13,9 C 8,9 C 76 % 1026,5 hPa 0,0 l/m 2 min 0 min 360 W/m 16,1 km/h (3 Bft) 95,74 %
16.11.2018 12:26 10,2 C 13,9 C 8,3 C 76 % 1026,4 hPa 0,0 l/m 2 min 0 min 359 W/m 19,3 km/h (3 Bft) 93,62 %
16.11.2018 12:28 10,2 C 14,4 C 8,3 C 76 % 1026,4 hPa 0,0 l/m 2 min 0 min 359 W/m 16,1 km/h (3 Bft) 97,87 %
16.11.2018 12:30 10,2 C 13,3 C 8,3 C 76 % 1026,4 hPa 0,0 l/m 2 min 0 min 359 W/m 22,5 km/h (4 Bft) 95,74 %
16.11.2018 12:32 10,2 C 13,9 C 8,3 C 75 % 1026,5 hPa 0,0 l/m 2 min 0 min 361 W/m 16,1 km/h (3 Bft) 93,48 %
16.11.2018 12:34 10,3 C 13,9 C 8,3 C 75 % 1026,4 hPa 0,0 l/m 2 min 0 min 361 W/m 22,5 km/h (4 Bft) 97,87 %
16.11.2018 12:36 10,3 C 14,4 C 8,9 C 75 % 1026,3 hPa 0,0 l/m 2 min 0 min 360 W/m 16,1 km/h (3 Bft) 97,87 %
16.11.2018 12:38 10,4 C 15,0 C 8,9 C 76 % 1026,4 hPa 0,0 l/m 2 min 0 min 361 W/m 19,3 km/h (3 Bft) 97,87 %
16.11.2018 12:40 10,5 C 15,0 C 8,9 C 76 % 1026,3 hPa 0,0 l/m 2 min 0 min 360 W/m 22,5 km/h (4 Bft) 97,87 %
16.11.2018 12:42 10,6 C 15,0 C 8,9 C 76 % 1026,3 hPa 0,0 l/m 2 min 0 min 359 W/m 22,5 km/h (4 Bft) 97,87 %
16.11.2018 12:44 10,6 C 13,9 C 8,9 C 75 % 1026,3 hPa 0,0 l/m 2 min 0 min 358 W/m 35,4 km/h (5 Bft) 95,65 %
16.11.2018 12:46 10,6 C 14,4 C 8,9 C 74 % 1026,3 hPa 0,0 l/m 2 min 0 min 356 W/m 22,5 km/h (4 Bft) 95,74 %
16.11.2018 12:48 10,7 C 15,0 C 8,9 C 74 % 1026,2 hPa 0,0 l/m 2 min 0 min 355 W/m 16,1 km/h (3 Bft) 95,74 %
16.11.2018 12:50 10,7 C 14,4 C 8,9 C 74 % 1026,1 hPa 0,0 l/m 2 min 0 min 354 W/m 22,5 km/h (4 Bft) 91,49 %
16.11.2018 12:52 10,8 C 14,4 C 8,9 C 74 % 1026,2 hPa 0,0 l/m 2 min 0 min 353 W/m 16,1 km/h (3 Bft) 95,74 %
16.11.2018 12:54 10,8 C 15,0 C 8,9 C 75 % 1026,1 hPa 0,0 l/m 2 min 0 min 353 W/m 22,5 km/h (4 Bft) 95,65 %
16.11.2018 12:56 10,8 C 14,4 C 8,9 C 74 % 1026,1 hPa 0,0 l/m 2 min 0 min 352 W/m 25,7 km/h (4 Bft) 95,74 %
16.11.2018 12:58 10,8 C 14,4 C 8,9 C 74 % 1026,1 hPa 0,0 l/m 2 min 0 min 352 W/m 22,5 km/h (4 Bft) 95,74 %
16.11.2018 13:00 10,9 C 13,9 C 8,9 C 74 % 1026,1 hPa 0,0 l/m 2 min 0 min 350 W/m 32,2 km/h (5 Bft) 95,74 %
16.11.2018 13:02 10,9 C 14,4 C 8,9 C 74 % 1026,2 hPa 0,0 l/m 2 min 0 min 349 W/m 22,5 km/h (4 Bft) 95,74 %
16.11.2018 13:04 10,9 C 15,0 C 8,9 C 74 % 1026,1 hPa 0,0 l/m 2 min 0 min 347 W/m 16,1 km/h (3 Bft) 95,74 %
16.11.2018 13:06 10,9 C 14,4 C 9,4 C 74 % 1026,2 hPa 0,0 l/m 2 min 0 min 345 W/m 22,5 km/h (4 Bft) 97,83 %
16.11.2018 13:08 11,0 C 13,9 C 9,4 C 74 % 1026,1 hPa 0,0 l/m 2 min 0 min 343 W/m 25,7 km/h (4 Bft) 97,87 %
16.11.2018 13:10 11,0 C 14,4 C 9,4 C 74 % 1026,1 hPa 0,0 l/m 2 min 0 min 341 W/m 16,1 km/h (3 Bft) 97,87 %
16.11.2018 13:12 11,0 C 15,0 C 9,4 C 74 % 1026,1 hPa 0,0 l/m 2 min 0 min 339 W/m 12,9 km/h (3 Bft) 95,74 %
16.11.2018 13:14 11,1 C 15,0 C 9,4 C 74 % 1026,1 hPa 0,0 l/m 2 min 0 min 338 W/m 12,9 km/h (3 Bft) 97,87 %
16.11.2018 13:16 11,1 C 15,0 C 9,4 C 74 % 1026,1 hPa 0,0 l/m 2 min 0 min 338 W/m 25,7 km/h (4 Bft) 97,87 %
16.11.2018 13:18 11,2 C 15,6 C 9,4 C 74 % 1026,2 hPa 0,0 l/m 2 min 0 min 336 W/m 9,7 km/h (2 Bft) 97,83 %
16.11.2018 13:20 11,2 C 15,0 C 9,4 C 74 % 1026,1 hPa 0,0 l/m 2 min 0 min 333 W/m 22,5 km/h (4 Bft) 95,74 %
16.11.2018 13:22 11,3 C 15,6 C 9,4 C 74 % 1026,1 hPa 0,0 l/m 2 min 0 min 333 W/m 12,9 km/h (3 Bft) 97,87 %
16.11.2018 13:24 11,3 C 14,4 C 9,4 C 73 % 1026,1 hPa 0,0 l/m 2 min 0 min 330 W/m 22,5 km/h (4 Bft) 95,74 %
16.11.2018 13:26 11,3 C 13,9 C 9,4 C 73 % 1026,2 hPa 0,0 l/m 2 min 0 min 329 W/m 25,7 km/h (4 Bft) 97,87 %
16.11.2018 13:28 11,3 C 14,4 C 9,4 C 73 % 1026,1 hPa 0,0 l/m 2 min 0 min 328 W/m 19,3 km/h (3 Bft) 97,87 %
16.11.2018 13:30 11,3 C 14,4 C 9,4 C 72 % 1026,1 hPa 0,0 l/m 2 min 0 min 324 W/m 22,5 km/h (4 Bft) 100,00 %
16.11.2018 13:32 11,3 C 14,4 C 9,4 C 72 % 1026,1 hPa 0,0 l/m 2 min 0 min 320 W/m 19,3 km/h (3 Bft) 100,00 %
16.11.2018 13:34 11,4 C 15,0 C 9,4 C 72 % 1026,1 hPa 0,0 l/m 2 min 0 min 322 W/m 16,1 km/h (3 Bft) 97,87 %
16.11.2018 13:36 11,4 C 15,6 C 9,4 C 73 % 1026,1 hPa 0,0 l/m 2 min 0 min 319 W/m 12,9 km/h (3 Bft) 100,00 %
16.11.2018 13:38 11,4 C 15,6 C 9,4 C 73 % 1026,1 hPa 0,0 l/m 2 min 0 min 316 W/m 9,7 km/h (2 Bft) 97,87 %
16.11.2018 13:40 11,4 C 15,6 C 9,4 C 73 % 1026,1 hPa 0,0 l/m 2 min 0 min 313 W/m 9,7 km/h (2 Bft) 100,00 %
16.11.2018 13:42 11,5 C 16,1 C 9,4 C 73 % 1026,1 hPa 0,0 l/m 2 min 0 min 311 W/m 9,7 km/h (2 Bft) 97,83 %
16.11.2018 13:44 11,6 C 15,6 C 10,0 C 73 % 1026,2 hPa 0,0 l/m 2 min 0 min 309 W/m 16,1 km/h (3 Bft) 97,87 %
16.11.2018 13:46 11,6 C 15,6 C 10,0 C 72 % 1026,2 hPa 0,0 l/m 2 min 0 min 307 W/m 16,1 km/h (3 Bft) 100,00 %
16.11.2018 13:48 11,7 C 15,6 C 10,0 C 72 % 1026,2 hPa 0,0 l/m 2 min 0 min 307 W/m 12,9 km/h (3 Bft) 95,74 %
16.11.2018 13:50 11,7 C 15,6 C 10,0 C 72 % 1026,2 hPa 0,0 l/m 2 min 0 min 303 W/m 12,9 km/h (3 Bft) 100,00 %
16.11.2018 13:52 11,7 C 15,6 C 10,0 C 72 % 1026,2 hPa 0,0 l/m 2 min 0 min 300 W/m 19,3 km/h (3 Bft) 100,00 %
16.11.2018 13:54 11,7 C 15,6 C 10,0 C 71 % 1026,1 hPa 0,0 l/m 2 min 0 min 296 W/m 9,7 km/h (2 Bft) 100,00 %
16.11.2018 13:56 11,8 C 15,0 C 10,0 C 71 % 1026,1 hPa 0,0 l/m 2 min 0 min 295 W/m 16,1 km/h (3 Bft) 100,00 %
16.11.2018 13:58 11,8 C 15,0 C 10,0 C 71 % 1026,1 hPa 0,0 l/m 2 min 0 min 294 W/m 16,1 km/h (3 Bft) 100,00 %
16.11.2018 14:00 11,8 C 15,6 C 10,0 C 71 % 1026,1 hPa 0,0 l/m 2 min 0 min 292 W/m 9,7 km/h (2 Bft) 100,00 %
16.11.2018 14:02 11,9 C 15,6 C 10,0 C 71 % 1026,1 hPa 0,0 l/m 2 min 0 min 289 W/m 22,5 km/h (4 Bft) 100,00 %
16.11.2018 14:04 11,9 C 15,0 C 10,0 C 71 % 1026,0 hPa 0,0 l/m 2 min 0 min 286 W/m 22,5 km/h (4 Bft) 100,00 %
16.11.2018 14:06 11,9 C 15,6 C 10,0 C 71 % 1026,0 hPa 0,0 l/m 2 min 0 min 282 W/m 19,3 km/h (3 Bft) 100,00 %
16.11.2018 14:08 11,9 C 15,0 C 9,4 C 70 % 1026,0 hPa 0,0 l/m 2 min 0 min 279 W/m 19,3 km/h (3 Bft) 100,00 %
16.11.2018 14:10 11,9 C 15,0 C 9,4 C 70 % 1026,0 hPa 0,0 l/m 2 min 0 min 278 W/m 22,5 km/h (4 Bft) 97,87 %
16.11.2018 14:12 11,9 C 15,0 C 10,0 C 70 % 1025,9 hPa 0,0 l/m 2 min 0 min 274 W/m 12,9 km/h (3 Bft) 100,00 %
16.11.2018 14:14 11,9 C 15,0 C 9,4 C 70 % 1025,9 hPa 0,0 l/m 2 min 0 min 271 W/m 16,1 km/h (3 Bft) 100,00 %
16.11.2018 14:16 12,0 C 15,6 C 9,4 C 70 % 1025,9 hPa 0,0 l/m 2 min 0 min 270 W/m 12,9 km/h (3 Bft) 100,00 %
16.11.2018 14:18 12,0 C 15,6 C 9,4 C 70 % 1025,9 hPa 0,0 l/m 2 min 0 min 267 W/m 6,4 km/h (2 Bft) 100,00 %
16.11.2018 14:20 12,0 C 16,1 C 9,4 C 70 % 1025,9 hPa 0,0 l/m 2 min 0 min 264 W/m 16,1 km/h (3 Bft) 100,00 %
16.11.2018 14:22 12,0 C 15,6 C 10,0 C 70 % 1026,0 hPa 0,0 l/m 2 min 0 min 261 W/m 19,3 km/h (3 Bft) 100,00 %
16.11.2018 14:24 12,1 C 15,0 C 10,0 C 69 % 1025,9 hPa 0,0 l/m 2 min 0 min 259 W/m 25,7 km/h (4 Bft) 97,87 %
16.11.2018 14:26 12,1 C 15,0 C 10,0 C 69 % 1025,9 hPa 0,0 l/m 2 min 0 min 257 W/m 16,1 km/h (3 Bft) 100,00 %
16.11.2018 14:28 12,1 C 15,6 C 10,0 C 69 % 1025,9 hPa 0,0 l/m 2 min 0 min 253 W/m 9,7 km/h (2 Bft) 100,00 %
16.11.2018 14:30 12,1 C 15,6 C 10,0 C 69 % 1025,9 hPa 0,0 l/m 2 min 0 min 251 W/m 9,7 km/h (2 Bft) 95,65 %
16.11.2018 14:32 12,2 C 16,1 C 10,0 C 69 % 1025,9 hPa 0,0 l/m 2 min 0 min 247 W/m 9,7 km/h (2 Bft) 97,87 %
16.11.2018 14:34 12,2 C 15,6 C 10,0 C 69 % 1025,9 hPa 0,0 l/m 2 min 0 min 244 W/m 16,1 km/h (3 Bft) 100,00 %
16.11.2018 14:36 12,2 C 15,6 C 9,4 C 69 % 1025,9 hPa 0,0 l/m 2 min 0 min 242 W/m 16,1 km/h (3 Bft) 100,00 %
16.11.2018 14:38 12,2 C 15,0 C 10,0 C 68 % 1025,9 hPa 0,0 l/m 2 min 0 min 238 W/m 19,3 km/h (3 Bft) 100,00 %
16.11.2018 14:40 12,2 C 15,6 C 9,4 C 68 % 1025,8 hPa 0,0 l/m 2 min 0 min 236 W/m 16,1 km/h (3 Bft) 97,87 %
16.11.2018 14:42 12,2 C 15,6 C 10,0 C 68 % 1025,8 hPa 0,0 l/m 2 min 0 min 230 W/m 12,9 km/h (3 Bft) 95,65 %
16.11.2018 14:44 12,2 C 15,0 C 10,0 C 68 % 1025,8 hPa 0,0 l/m 2 min 0 min 228 W/m 16,1 km/h (3 Bft) 100,00 %
16.11.2018 14:46 12,2 C 14,4 C 10,0 C 68 % 1025,8 hPa 0,0 l/m 2 min 0 min 224 W/m 12,9 km/h (3 Bft) 95,74 %
16.11.2018 14:48 12,2 C 13,3 C 10,0 C 69 % 1025,8 hPa 0,0 l/m 2 min 0 min 219 W/m 9,7 km/h (2 Bft) 95,74 %
16.11.2018 14:50 12,2 C 12,2 C 9,4 C 69 % 1025,8 hPa 0,0 l/m 2 min 0 min 215 W/m 9,7 km/h (2 Bft) 97,87 %
16.11.2018 14:52 12,1 C 12,2 C 9,4 C 69 % 1025,8 hPa 0,0 l/m 2 min 0 min 193 W/m 9,7 km/h (2 Bft) 93,62 %
16.11.2018 14:54 12,1 C 11,7 C 9,4 C 69 % 1025,7 hPa 0,0 l/m 2 min 0 min 139 W/m 9,7 km/h (2 Bft) 95,65 %
16.11.2018 14:56 12,1 C 11,7 C 9,4 C 69 % 1025,7 hPa 0,0 l/m 2 min 0 min 113 W/m 12,9 km/h (3 Bft) 95,74 %
16.11.2018 14:58 12,0 C 11,7 C 9,4 C 68 % 1025,8 hPa 0,0 l/m 0 min 0 min 53 W/m 9,7 km/h (2 Bft) 95,74 %
16.11.2018 15:00 12,0 C 11,7 C 9,4 C 69 % 1025,8 hPa 0,0 l/m 0 min 0 min 44 W/m 6,4 km/h (2 Bft) 95,74 %
16.11.2018 15:02 11,9 C 11,1 C 9,4 C 69 % 1025,8 hPa 0,0 l/m 0 min 0 min 42 W/m 9,7 km/h (2 Bft) 95,74 %
16.11.2018 15:04 11,9 C 11,1 C 8,9 C 69 % 1025,8 hPa 0,0 l/m 0 min 0 min 42 W/m 9,7 km/h (2 Bft) 95,65 %
16.11.2018 15:06 11,8 C 11,1 C 8,9 C 70 % 1025,8 hPa 0,0 l/m 0 min 0 min 42 W/m 9,7 km/h (2 Bft) 93,62 %
16.11.2018 15:08 11,8 C 11,1 C 8,9 C 70 % 1025,8 hPa 0,0 l/m 0 min 0 min 40 W/m 6,4 km/h (2 Bft) 93,62 %
16.11.2018 15:10 11,8 C 11,1 C 8,9 C 70 % 1025,8 hPa 0,0 l/m 0 min 0 min 40 W/m 9,7 km/h (2 Bft) 95,74 %
16.11.2018 15:12 11,7 C 11,1 C 8,9 C 70 % 1025,8 hPa 0,0 l/m 0 min 0 min 40 W/m 6,4 km/h (2 Bft) 95,74 %
16.11.2018 15:14 11,7 C 11,1 C 8,9 C 70 % 1025,8 hPa 0,0 l/m 0 min 0 min 39 W/m 6,4 km/h (2 Bft) 95,74 %
16.11.2018 15:16 11,7 C 11,1 C 8,9 C 70 % 1025,8 hPa 0,0 l/m 0 min 0 min 39 W/m 9,7 km/h (2 Bft) 95,65 %
16.11.2018 15:18 11,7 C 11,1 C 8,9 C 70 % 1025,8 hPa 0,0 l/m 0 min 0 min 38 W/m 16,1 km/h (3 Bft) 95,74 %
16.11.2018 15:20 11,6 C 11,1 C 8,9 C 70 % 1025,8 hPa 0,0 l/m 0 min 0 min 37 W/m 9,7 km/h (2 Bft) 95,74 %
16.11.2018 15:22 11,7 C 11,1 C 9,4 C 70 % 1025,7 hPa 0,0 l/m 0 min 0 min 35 W/m 12,9 km/h (3 Bft) 93,62 %
16.11.2018 15:24 11,6 C 11,1 C 9,4 C 69 % 1025,8 hPa 0,0 l/m 0 min 0 min 35 W/m 12,9 km/h (3 Bft) 93,62 %
16.11.2018 15:26 11,6 C 11,1 C 8,9 C 69 % 1025,9 hPa 0,0 l/m 0 min 0 min 35 W/m 6,4 km/h (2 Bft) 95,74 %
16.11.2018 15:28 11,6 C 11,1 C 8,9 C 69 % 1025,9 hPa 0,0 l/m 0 min 0 min 33 W/m 6,4 km/h (2 Bft) 95,65 %
16.11.2018 15:30 11,6 C 11,1 C 8,9 C 70 % 1025,9 hPa 0,0 l/m 0 min 0 min 33 W/m 9,7 km/h (2 Bft) 93,62 %
16.11.2018 15:32 11,6 C 11,1 C 8,9 C 70 % 1026,0 hPa 0,0 l/m 0 min 0 min 33 W/m 6,4 km/h (2 Bft) 95,74 %
16.11.2018 15:34 11,5 C 11,1 C 8,9 C 70 % 1026,0 hPa 0,0 l/m 0 min 0 min 32 W/m 6,4 km/h (2 Bft) 95,74 %
16.11.2018 15:36 11,5 C 11,1 C 8,9 C 70 % 1026,0 hPa 0,0 l/m 0 min 0 min 32 W/m 6,4 km/h (2 Bft) 93,62 %
16.11.2018 15:38 11,4 C 10,6 C 8,3 C 70 % 1026,1 hPa 0,0 l/m 0 min 0 min 30 W/m 6,4 km/h (2 Bft) 95,74 %
16.11.2018 15:40 11,4 C 10,6 C 8,3 C 70 % 1026,1 hPa 0,0 l/m 0 min 0 min 29 W/m 6,4 km/h (2 Bft) 97,83 %
16.11.2018 15:42 11,4 C 10,6 C 8,3 C 70 % 1026,1 hPa 0,0 l/m 0 min 0 min 28 W/m 6,4 km/h (2 Bft) 97,87 %
16.11.2018 15:44 11,4 C 10,6 C 8,3 C 70 % 1026,1 hPa 0,0 l/m 0 min 0 min 30 W/m 6,4 km/h (2 Bft) 95,74 %
16.11.2018 15:46 11,4 C 10,6 C 8,3 C 71 % 1026,1 hPa 0,0 l/m 0 min 0 min 32 W/m 6,4 km/h (2 Bft) 97,87 %
16.11.2018 15:48 11,3 C 10,6 C 8,3 C 71 % 1026,1 hPa 0,0 l/m 0 min 0 min 27 W/m 6,4 km/h (2 Bft) 95,74 %
16.11.2018 15:50 11,3 C 10,6 C 8,3 C 71 % 1026,0 hPa 0,0 l/m 0 min 0 min 26 W/m 6,4 km/h (2 Bft) 95,74 %
16.11.2018 15:52 11,3 C 10,6 C 8,3 C 71 % 1026,1 hPa 0,0 l/m 0 min 0 min 25 W/m 6,4 km/h (2 Bft) 95,65 %
16.11.2018 15:54 11,2 C 10,6 C 8,3 C 71 % 1026,0 hPa 0,0 l/m 0 min 0 min 25 W/m 6,4 km/h (2 Bft) 95,74 %
16.11.2018 15:56 11,2 C 10,6 C 8,3 C 71 % 1025,9 hPa 0,0 l/m 0 min 0 min 24 W/m 6,4 km/h (2 Bft) 97,87 %
16.11.2018 15:58 11,2 C 10,6 C 8,3 C 71 % 1025,9 hPa 0,0 l/m 0 min 0 min 23 W/m 6,4 km/h (2 Bft) 97,87 %
16.11.2018 16:00 11,2 C 10,6 C 8,3 C 71 % 1025,9 hPa 0,0 l/m 0 min 0 min 22 W/m 6,4 km/h (2 Bft) 97,87 %
16.11.2018 16:02 11,1 C 10,6 C 8,3 C 72 % 1025,9 hPa 0,0 l/m 0 min 0 min 21 W/m 6,4 km/h (2 Bft) 95,74 %
16.11.2018 16:04 11,1 C 10,0 C 8,3 C 72 % 1025,9 hPa 0,0 l/m 0 min 0 min 21 W/m 6,4 km/h (2 Bft) 97,83 %
16.11.2018 16:06 11,1 C 10,0 C 8,3 C 72 % 1025,8 hPa 0,0 l/m 0 min 0 min 19 W/m 6,4 km/h (2 Bft) 97,87 %
16.11.2018 16:08 11,0 C 10,0 C 7,8 C 72 % 1025,9 hPa 0,0 l/m 0 min 0 min 19 W/m 6,4 km/h (2 Bft) 97,87 %
16.11.2018 16:10 10,9 C 10,0 C 7,8 C 72 % 1025,9 hPa 0,0 l/m 0 min 0 min 18 W/m 6,4 km/h (2 Bft) 97,87 %
16.11.2018 16:12 10,9 C 10,0 C 7,8 C 72 % 1025,8 hPa 0,0 l/m 0 min 0 min 18 W/m 6,4 km/h (2 Bft) 95,74 %
16.11.2018 16:14 10,9 C 10,0 C 7,8 C 73 % 1025,9 hPa 0,0 l/m 0 min 0 min 17 W/m 6,4 km/h (2 Bft) 97,87 %
16.11.2018 16:16 10,8 C 9,4 C 7,8 C 73 % 1026,0 hPa 0,0 l/m 0 min 0 min 16 W/m 3,2 km/h (1 Bft) 97,83 %
16.11.2018 16:18 10,8 C 9,4 C 7,8 C 73 % 1026,0 hPa 0,0 l/m 0 min 0 min 15 W/m 6,4 km/h (2 Bft) 97,87 %
16.11.2018 16:20 10,8 C 8,9 C 7,8 C 73 % 1026,0 hPa 0,0 l/m 0 min 0 min 14 W/m 3,2 km/h (1 Bft) 97,87 %
16.11.2018 16:22 10,7 C 8,9 C 7,2 C 73 % 1026,0 hPa 0,0 l/m 0 min 0 min 13 W/m 3,2 km/h (1 Bft) 97,87 %
16.11.2018 16:24 10,7 C 8,3 C 7,2 C 74 % 1026,0 hPa 0,0 l/m 0 min 0 min 12 W/m 3,2 km/h (1 Bft) 93,62 %
16.11.2018 16:26 10,7 C 8,3 C 7,2 C 74 % 1026,0 hPa 0,0 l/m 0 min 0 min 12 W/m 3,2 km/h (1 Bft) 97,83 %
16.11.2018 16:28 10,6 C 7,8 C 7,2 C 74 % 1026,0 hPa 0,0 l/m 0 min 0 min 11 W/m 3,2 km/h (1 Bft) 95,74 %
16.11.2018 16:30 10,5 C 7,8 C 6,7 C 74 % 1026,0 hPa 0,0 l/m 0 min 0 min 11 W/m 3,2 km/h (1 Bft) 95,74 %
16.11.2018 16:32 10,4 C 7,8 C 6,7 C 74 % 1026,0 hPa 0,0 l/m 0 min 0 min 10 W/m 3,2 km/h (1 Bft) 100,00 %
16.11.2018 16:34 10,4 C 7,2 C 6,7 C 75 % 1026,0 hPa 0,0 l/m 0 min 0 min 9 W/m 3,2 km/h (1 Bft) 100,00 %
16.11.2018 16:36 10,3 C 7,2 C 6,7 C 75 % 1026,0 hPa 0,0 l/m 0 min 0 min 8 W/m 0,0 km/h (0 Bft) 95,74 %
16.11.2018 16:38 10,2 C 7,2 C 6,7 C 75 % 1026,0 hPa 0,0 l/m 0 min 0 min 7 W/m 3,2 km/h (1 Bft) 97,83 %
16.11.2018 16:40 10,1 C 7,2 C 6,7 C 75 % 1025,9 hPa 0,0 l/m 0 min 0 min 7 W/m 3,2 km/h (1 Bft) 97,87 %
16.11.2018 16:42 10,0 C 7,2 C 6,1 C 75 % 1025,9 hPa 0,0 l/m 0 min 0 min 5 W/m 3,2 km/h (1 Bft) 95,74 %
16.11.2018 16:44 9,9 C 7,2 C 6,1 C 75 % 1025,9 hPa 0,0 l/m 0 min 0 min 5 W/m 3,2 km/h (1 Bft) 97,87 %
16.11.2018 16:46 9,8 C 6,7 C 6,1 C 75 % 1025,9 hPa 0,0 l/m 0 min 0 min 5 W/m 6,4 km/h (2 Bft) 97,87 %
16.11.2018 16:48 9,7 C 6,7 C 6,1 C 75 % 1025,9 hPa 0,0 l/m 0 min 0 min 0 W/m 3,2 km/h (1 Bft) 97,87 %
16.11.2018 16:50 9,7 C 6,7 C 6,1 C 76 % 1025,9 hPa 0,0 l/m 0 min 0 min 0 W/m 3,2 km/h (1 Bft) 97,83 %
16.11.2018 16:52 9,6 C 6,7 C 6,1 C 76 % 1026,0 hPa 0,0 l/m 0 min 0 min 0 W/m 3,2 km/h (1 Bft) 95,74 %
16.11.2018 16:54 9,5 C 6,7 C 5,6 C 76 % 1026,0 hPa 0,0 l/m 0 min 0 min 0 W/m 0,0 km/h (0 Bft) 97,87 %
16.11.2018 16:56 9,4 C 6,1 C 5,6 C 76 % 1025,9 hPa 0,0 l/m 0 min 0 min 0 W/m 0,0 km/h (0 Bft) 97,87 %
16.11.2018 16:58 9,3 C 6,1 C 5,6 C 76 % 1026,0 hPa 0,0 l/m 0 min 0 min 0 W/m 3,2 km/h (1 Bft) 95,74 %
16.11.2018 17:00 9,2 C 6,1 C 5,6 C 76 % 1025,9 hPa 0,0 l/m 0 min 0 min 0 W/m 3,2 km/h (1 Bft) 97,87 %
16.11.2018 17:02 9,1 C 6,1 C 5,6 C 76 % 1026,0 hPa 0,0 l/m 0 min 0 min 0 W/m 0,0 km/h (0 Bft) 97,83 %
16.11.2018 17:04 8,9 C 6,1 C 5,6 C 77 % 1026,0 hPa 0,0 l/m 0 min 0 min 0 W/m 0,0 km/h (0 Bft) 95,74 %
16.11.2018 17:06 8,8 C 6,1 C 5,6 C 77 % 1026,0 hPa 0,0 l/m 0 min 0 min 0 W/m 0,0 km/h (0 Bft) 91,49 %
16.11.2018 17:08 8,8 C 5,6 C 5,0 C 77 % 1026,1 hPa 0,0 l/m 0 min 0 min 0 W/m 0,0 km/h (0 Bft) 100,00 %
16.11.2018 17:10 8,7 C 5,6 C 5,0 C 77 % 1026,1 hPa 0,0 l/m 0 min 0 min 0 W/m 0,0 km/h (0 Bft) 100,00 %
16.11.2018 17:12 8,6 C 5,6 C 5,0 C 77 % 1026,1 hPa 0,0 l/m 0 min 0 min 0 W/m 0,0 km/h (0 Bft) 100,00 %
16.11.2018 17:14 8,4 C 5,6 C 5,0 C 78 % 1026,1 hPa 0,0 l/m 0 min 0 min 0 W/m 0,0 km/h (0 Bft) 97,83 %
16.11.2018 17:16 8,3 C 5,6 C 5,0 C 78 % 1026,1 hPa 0,0 l/m 0 min 0 min 0 W/m 0,0 km/h (0 Bft) 100,00 %
16.11.2018 17:18 8,2 C 5,0 C 5,0 C 78 % 1026,1 hPa 0,0 l/m 0 min 0 min 0 W/m 0,0 km/h (0 Bft) 97,87 %
16.11.2018 17:20 8,1 C 5,0 C 5,0 C 78 % 1026,1 hPa 0,0 l/m 0 min 0 min 0 W/m 0,0 km/h (0 Bft) 100,00 %
16.11.2018 17:22 8,1 C 5,0 C 5,0 C 79 % 1026,0 hPa 0,0 l/m 0 min 0 min 0 W/m 0,0 km/h (0 Bft) 100,00 %
16.11.2018 17:24 7,9 C 5,0 C 4,4 C 79 % 1026,1 hPa 0,0 l/m 0 min 0 min 0 W/m 3,2 km/h (1 Bft) 100,00 %
16.11.2018 17:26 7,8 C 5,0 C 4,4 C 79 % 1026,0 hPa 0,0 l/m 0 min 0 min 0 W/m 0,0 km/h (0 Bft) 100,00 %
16.11.2018 17:28 7,7 C 5,0 C 4,4 C 79 % 1026,1 hPa 0,0 l/m 0 min 0 min 0 W/m 0,0 km/h (0 Bft) 100,00 %
16.11.2018 17:30 7,7 C 5,0 C 4,4 C 80 % 1026,0 hPa 0,0 l/m 0 min 0 min 0 W/m 0,0 km/h (0 Bft) 100,00 %
16.11.2018 17:32 7,6 C 5,0 C 4,4 C 79 % 1026,1 hPa 0,0 l/m 0 min 0 min 0 W/m 3,2 km/h (1 Bft) 100,00 %
16.11.2018 17:34 7,5 C 5,0 C 4,4 C 80 % 1026,0 hPa 0,0 l/m 0 min 0 min 0 W/m 3,2 km/h (1 Bft) 100,00 %
16.11.2018 17:36 7,4 C 5,0 C 4,4 C 80 % 1026,0 hPa 0,0 l/m 0 min 0 min 0 W/m 6,4 km/h (2 Bft) 100,00 %
16.11.2018 17:38 7,3 C 5,0 C 4,4 C 80 % 1026,0 hPa 0,0 l/m 0 min 0 min 0 W/m 3,2 km/h (1 Bft) 100,00 %
16.11.2018 17:40 7,3 C 5,0 C 4,4 C 80 % 1026,0 hPa 0,0 l/m 0 min 0 min 0 W/m 3,2 km/h (1 Bft) 100,00 %
16.11.2018 17:42 7,2 C 5,0 C 4,4 C 80 % 1026,0 hPa 0,0 l/m 0 min 0 min 0 W/m 3,2 km/h (1 Bft) 100,00 %
16.11.2018 17:44 7,2 C 5,0 C 4,4 C 80 % 1026,0 hPa 0,0 l/m 0 min 0 min 0 W/m 3,2 km/h (1 Bft) 95,74 %
16.11.2018 17:46 7,1 C 5,0 C 4,4 C 80 % 1026,0 hPa 0,0 l/m 0 min 0 min 0 W/m 3,2 km/h (1 Bft) 100,00 %
16.11.2018 17:48 7,0 C 5,6 C 4,4 C 81 % 1026,0 hPa 0,0 l/m 0 min 0 min 0 W/m 6,4 km/h (2 Bft) 100,00 %
16.11.2018 17:50 7,0 C 5,6 C 4,4 C 81 % 1026,0 hPa 0,0 l/m 0 min 0 min 0 W/m 3,2 km/h (1 Bft) 100,00 %
16.11.2018 17:52 6,9 C 5,6 C 4,4 C 81 % 1026,0 hPa 0,0 l/m 0 min 0 min 0 W/m 3,2 km/h (1 Bft) 100,00 %
16.11.2018 17:54 6,9 C 6,1 C 4,4 C 81 % 1026,0 hPa 0,0 l/m 0 min 0 min 0 W/m 6,4 km/h (2 Bft) 100,00 %
16.11.2018 17:56 6,8 C 6,1 C 4,4 C 81 % 1026,1 hPa 0,0 l/m 0 min 0 min 0 W/m 6,4 km/h (2 Bft) 100,00 %
16.11.2018 17:58 6,8 C 6,1 C 4,4 C 82 % 1026,1 hPa 0,0 l/m 0 min 0 min 0 W/m 6,4 km/h (2 Bft) 100,00 %
16.11.2018 18:00 6,8 C 6,1 C 4,4 C 82 % 1026,0 hPa 0,0 l/m 0 min 0 min 0 W/m 3,2 km/h (1 Bft) 100,00 %
16.11.2018 18:02 6,8 C 6,1 C 4,4 C 82 % 1026,1 hPa 0,0 l/m 0 min 0 min 0 W/m 3,2 km/h (1 Bft) 100,00 %
16.11.2018 18:04 6,8 C 6,1 C 4,4 C 82 % 1026,1 hPa 0,0 l/m 0 min 0 min 0 W/m 3,2 km/h (1 Bft) 100,00 %
16.11.2018 18:08 6,7 C 5,6 C 4,4 C 82 % 1026,1 hPa 0,0 l/m 0 min 0 min 0 W/m 6,4 km/h (2 Bft) 98,94 %
16.11.2018 18:10 6,7 C 5,6 C 4,4 C 82 % 1026,0 hPa 0,0 l/m 0 min 0 min 0 W/m 6,4 km/h (2 Bft) 97,87 %
16.11.2018 18:12 6,7 C 5,0 C 4,4 C 82 % 1026,1 hPa 0,0 l/m 0 min 0 min 0 W/m 3,2 km/h (1 Bft) 97,83 %
16.11.2018 18:14 6,6 C 5,0 C 3,9 C 82 % 1026,1 hPa 0,0 l/m 0 min 0 min 0 W/m 3,2 km/h (1 Bft) 100,00 %
16.11.2018 18:16 6,6 C 4,4 C 3,9 C 82 % 1026,2 hPa 0,0 l/m 0 min 0 min 0 W/m 3,2 km/h (1 Bft) 100,00 %
16.11.2018 18:18 6,6 C 4,4 C 3,9 C 82 % 1026,2 hPa 0,0 l/m 0 min 0 min 0 W/m 3,2 km/h (1 Bft) 100,00 %
16.11.2018 18:20 6,6 C 4,4 C 3,9 C 82 % 1026,1 hPa 0,0 l/m 0 min 0 min 0 W/m 3,2 km/h (1 Bft) 93,62 %
16.11.2018 18:22 6,5 C 4,4 C 3,9 C 82 % 1026,1 hPa 0,0 l/m 0 min 0 min 0 W/m 3,2 km/h (1 Bft) 93,62 %
16.11.2018 18:24 6,4 C 4,4 C 3,9 C 82 % 1026,1 hPa 0,0 l/m 0 min 0 min 0 W/m 6,4 km/h (2 Bft) 95,65 %
16.11.2018 18:26 6,4 C 5,0 C 3,9 C 82 % 1026,1 hPa 0,0 l/m 0 min 0 min 0 W/m 6,4 km/h (2 Bft) 95,74 %
16.11.2018 18:28 6,4 C 5,6 C 3,9 C 82 % 1026,2 hPa 0,0 l/m 0 min 0 min 0 W/m 6,4 km/h (2 Bft) 95,74 %
16.11.2018 18:30 6,4 C 6,1 C 3,9 C 83 % 1026,1 hPa 0,0 l/m 0 min 0 min 0 W/m 6,4 km/h (2 Bft) 93,62 %
16.11.2018 18:32 6,4 C 6,1 C 3,9 C 83 % 1026,2 hPa 0,0 l/m 0 min 0 min 0 W/m 6,4 km/h (2 Bft) 95,74 %
16.11.2018 18:34 6,4 C 6,7 C 3,9 C 83 % 1026,1 hPa 0,0 l/m 0 min 0 min 0 W/m 6,4 km/h (2 Bft) 95,74 %
16.11.2018 18:36 6,4 C 6,7 C 3,9 C 83 % 1026,1 hPa 0,0 l/m 0 min 0 min 0 W/m 6,4 km/h (2 Bft) 93,48 %
16.11.2018 18:38 6,4 C 6,7 C 3,9 C 84 % 1026,2 hPa 0,0 l/m 0 min 0 min 0 W/m 6,4 km/h (2 Bft) 95,74 %
16.11.2018 18:40 6,4 C 6,1 C 3,9 C 84 % 1026,2 hPa 0,0 l/m 0 min 0 min 0 W/m 3,2 km/h (1 Bft) 95,74 %
16.11.2018 18:42 6,4 C 6,1 C 3,9 C 84 % 1026,2 hPa 0,0 l/m 0 min 0 min 0 W/m 6,4 km/h (2 Bft) 95,74 %
16.11.2018 18:44 6,4 C 6,1 C 3,9 C 84 % 1026,3 hPa 0,0 l/m 0 min 0 min 0 W/m 6,4 km/h (2 Bft) 95,74 %
16.11.2018 18:46 6,4 C 5,6 C 3,9 C 84 % 1026,3 hPa 0,0 l/m 0 min 0 min 0 W/m 3,2 km/h (1 Bft) 95,65 %
16.11.2018 18:48 6,4 C 5,6 C 3,9 C 84 % 1026,4 hPa 0,0 l/m 0 min 0 min 0 W/m 3,2 km/h (1 Bft) 93,62 %
16.11.2018 18:50 6,4 C 5,6 C 3,9 C 84 % 1026,4 hPa 0,0 l/m 0 min 0 min 0 W/m 3,2 km/h (1 Bft) 97,87 %
16.11.2018 18:52 6,4 C 5,0 C 3,9 C 83 % 1026,3 hPa 0,0 l/m 0 min 0 min 0 W/m 3,2 km/h (1 Bft) 97,87 %
16.11.2018 18:54 6,4 C 5,0 C 3,9 C 83 % 1026,4 hPa 0,0 l/m 0 min 0 min 0 W/m 3,2 km/h (1 Bft) 95,74 %
16.11.2018 18:56 6,4 C 4,4 C 3,9 C 83 % 1026,4 hPa 0,0 l/m 0 min 0 min 0 W/m 3,2 km/h (1 Bft) 100,00 %
16.11.2018 18:58 6,4 C 4,4 C 3,9 C 83 % 1026,4 hPa 0,0 l/m 0 min 0 min 0 W/m 6,4 km/h (2 Bft) 95,65 %
16.11.2018 19:00 6,3 C 4,4 C 3,9 C 83 % 1026,3 hPa 0,0 l/m 0 min 0 min 0 W/m 6,4 km/h (2 Bft) 97,87 %
16.11.2018 19:02 6,3 C 4,4 C 3,9 C 83 % 1026,4 hPa 0,0 l/m 0 min 0 min 0 W/m 6,4 km/h (2 Bft) 97,87 %
16.11.2018 19:04 6,3 C 5,0 C 3,9 C 83 % 1026,4 hPa 0,0 l/m 0 min 0 min 0 W/m 6,4 km/h (2 Bft) 97,87 %
16.11.2018 19:06 6,3 C 5,6 C 3,9 C 83 % 1026,4 hPa 0,0 l/m 0 min 0 min 0 W/m 9,7 km/h (2 Bft) 97,87 %
16.11.2018 19:08 6,3 C 6,1 C 3,9 C 83 % 1026,4 hPa 0,0 l/m 0 min 0 min 0 W/m 9,7 km/h (2 Bft) 97,87 %
16.11.2018 19:10 6,4 C 6,7 C 4,4 C 83 % 1026,4 hPa 0,0 l/m 0 min 0 min 0 W/m 9,7 km/h (2 Bft) 95,74 %
16.11.2018 19:12 6,4 C 7,2 C 4,4 C 83 % 1026,4 hPa 0,0 l/m 0 min 0 min 0 W/m 9,7 km/h (2 Bft) 100,00 %
16.11.2018 19:14 6,5 C 7,2 C 5,0 C 83 % 1026,4 hPa 0,0 l/m 0 min 0 min 0 W/m 9,7 km/h (2 Bft) 100,00 %
16.11.2018 19:16 6,6 C 7,2 C 5,0 C 82 % 1026,5 hPa 0,0 l/m 0 min 0 min 0 W/m 6,4 km/h (2 Bft) 97,87 %
16.11.2018 19:18 6,7 C 7,2 C 5,0 C 82 % 1026,5 hPa 0,0 l/m 0 min 0 min 0 W/m 6,4 km/h (2 Bft) 97,87 %
16.11.2018 19:20 6,7 C 7,2 C 5,0 C 82 % 1026,6 hPa 0,0 l/m 0 min 0 min 0 W/m 9,7 km/h (2 Bft) 97,87 %
16.11.2018 19:22 6,8 C 7,2 C 5,0 C 82 % 1026,7 hPa 0,0 l/m 0 min 0 min 0 W/m 6,4 km/h (2 Bft) 97,83 %
16.11.2018 19:24 6,9 C 7,2 C 5,0 C 81 % 1026,7 hPa 0,0 l/m 0 min 0 min 0 W/m 9,7 km/h (2 Bft) 100,00 %
16.11.2018 19:26 7,0 C 6,7 C 5,0 C 81 % 1026,8 hPa 0,0 l/m 0 min 0 min 0 W/m 9,7 km/h (2 Bft) 100,00 %
16.11.2018 19:28 7,1 C 6,7 C 5,0 C 81 % 1026,7 hPa 0,0 l/m 0 min 0 min 0 W/m 6,4 km/h (2 Bft) 97,87 %
16.11.2018 19:30 7,1 C 6,7 C 5,0 C 80 % 1026,7 hPa 0,0 l/m 0 min 0 min 0 W/m 6,4 km/h (2 Bft) 97,87 %
16.11.2018 19:32 7,2 C 6,7 C 5,0 C 80 % 1026,8 hPa 0,0 l/m 0 min 0 min 0 W/m 6,4 km/h (2 Bft) 100,00 %
16.11.2018 19:34 7,2 C 6,1 C 4,4 C 80 % 1026,8 hPa 0,0 l/m 0 min 0 min 0 W/m 3,2 km/h (1 Bft) 100,00 %
16.11.2018 19:36 7,2 C 5,6 C 4,4 C 80 % 1026,8 hPa 0,0 l/m 0 min 0 min 0 W/m 3,2 km/h (1 Bft) 100,00 %
16.11.2018 19:38 7,2 C 5,6 C 4,4 C 80 % 1026,7 hPa 0,0 l/m 0 min 0 min 0 W/m 3,2 km/h (1 Bft) 100,00 %
16.11.2018 19:40 7,1 C 5,0 C 4,4 C 80 % 1026,8 hPa 0,0 l/m 0 min 0 min 0 W/m 6,4 km/h (2 Bft) 100,00 %
16.11.2018 19:42 7,1 C 5,0 C 3,9 C 79 % 1026,8 hPa 0,0 l/m 0 min 0 min 0 W/m 6,4 km/h (2 Bft) 100,00 %
16.11.2018 19:44 7,1 C 4,4 C 3,9 C 79 % 1026,7 hPa 0,0 l/m 0 min 0 min 0 W/m 6,4 km/h (2 Bft) 100,00 %
16.11.2018 19:46 7,0 C 4,4 C 3,9 C 79 % 1026,7 hPa 0,0 l/m 0 min 0 min 0 W/m 6,4 km/h (2 Bft) 100,00 %
16.11.2018 19:48 6,9 C 4,4 C 3,9 C 79 % 1026,8 hPa 0,0 l/m 0 min 0 min 0 W/m 3,2 km/h (1 Bft) 95,74 %
16.11.2018 19:50 6,9 C 3,9 C 3,9 C 79 % 1026,8 hPa 0,0 l/m 0 min 0 min 0 W/m 3,2 km/h (1 Bft) 97,87 %
16.11.2018 19:52 6,8 C 3,9 C 3,3 C 79 % 1026,9 hPa 0,0 l/m 0 min 0 min 0 W/m 3,2 km/h (1 Bft) 97,87 %
16.11.2018 19:54 6,7 C 3,9 C 3,3 C 79 % 1026,8 hPa 0,0 l/m 0 min 0 min 0 W/m 3,2 km/h (1 Bft) 95,74 %
16.11.2018 19:56 6,6 C 3,9 C 3,3 C 79 % 1026,9 hPa 0,0 l/m 0 min 0 min 0 W/m 3,2 km/h (1 Bft) 97,87 %
16.11.2018 19:58 6,6 C 3,3 C 3,3 C 79 % 1026,9 hPa 0,0 l/m 0 min 0 min 0 W/m 3,2 km/h (1 Bft) 97,83 %
16.11.2018 20:00 6,4 C 3,3 C 3,3 C 79 % 1026,9 hPa 0,0 l/m 0 min 0 min 0 W/m 3,2 km/h (1 Bft) 97,87 %
16.11.2018 20:02 6,4 C 3,3 C 3,3 C 79 % 1026,9 hPa 0,0 l/m 0 min 0 min 0 W/m 3,2 km/h (1 Bft) 97,87 %
16.11.2018 20:04 6,3 C 3,3 C 3,3 C 79 % 1026,9 hPa 0,0 l/m 0 min 0 min 0 W/m 3,2 km/h (1 Bft) 97,87 %
16.11.2018 20:06 6,2 C 3,3 C 2,8 C 79 % 1026,9 hPa 0,0 l/m 0 min 0 min 0 W/m 3,2 km/h (1 Bft) 95,74 %
16.11.2018 20:08 6,2 C 2,8 C 2,8 C 79 % 1026,9 hPa 0,0 l/m 0 min 0 min 0 W/m 0,0 km/h (0 Bft) 97,83 %
16.11.2018 20:10 6,1 C 2,8 C 2,8 C 79 % 1026,9 hPa 0,0 l/m 0 min 0 min 0 W/m 0,0 km/h (0 Bft) 95,74 %
16.11.2018 20:12 5,9 C 2,8 C 2,8 C 79 % 1026,9 hPa 0,0 l/m 0 min 0 min 0 W/m 0,0 km/h (0 Bft) 97,87 %
16.11.2018 20:14 5,8 C 2,8 C 2,8 C 79 % 1026,9 hPa 0,0 l/m 0 min 0 min 0 W/m 0,0 km/h (0 Bft) 97,87 %
16.11.2018 20:16 5,7 C 2,8 C 2,8 C 79 % 1026,9 hPa 0,0 l/m 0 min 0 min 0 W/m 3,2 km/h (1 Bft) 95,74 %
16.11.2018 20:18 5,7 C 2,8 C 2,8 C 80 % 1026,9 hPa 0,0 l/m 0 min 0 min 0 W/m 3,2 km/h (1 Bft) 95,74 %
16.11.2018 20:20 5,6 C 2,8 C 2,8 C 80 % 1026,9 hPa 0,0 l/m 0 min 0 min 0 W/m 3,2 km/h (1 Bft) 93,48 %
16.11.2018 20:22 5,5 C 2,8 C 2,2 C 80 % 1026,8 hPa 0,0 l/m 0 min 0 min 0 W/m 3,2 km/h (1 Bft) 97,87 %
16.11.2018 20:24 5,4 C 2,2 C 2,2 C 80 % 1026,9 hPa 0,0 l/m 0 min 0 min 0 W/m 3,2 km/h (1 Bft) 95,74 %
16.11.2018 20:26 5,3 C 2,8 C 2,2 C 80 % 1026,9 hPa 0,0 l/m 0 min 0 min 0 W/m 3,2 km/h (1 Bft) 93,62 %
16.11.2018 20:28 5,2 C 2,2 C 2,2 C 80 % 1026,9 hPa 0,0 l/m 0 min 0 min 0 W/m 3,2 km/h (1 Bft) 95,74 %
16.11.2018 20:30 5,2 C 2,8 C 2,2 C 80 % 1026,9 hPa 0,0 l/m 0 min 0 min 0 W/m 6,4 km/h (2 Bft) 95,74 %
16.11.2018 20:32 5,1 C 2,8 C 2,2 C 81 % 1026,9 hPa 0,0 l/m 0 min 0 min 0 W/m 0,0 km/h (0 Bft) 95,65 %
16.11.2018 20:34 5,1 C 2,8 C 2,2 C 81 % 1026,9 hPa 0,0 l/m 0 min 0 min 0 W/m 3,2 km/h (1 Bft) 91,49 %
16.11.2018 20:36 4,9 C 2,8 C 2,2 C 81 % 1026,9 hPa 0,0 l/m 0 min 0 min 0 W/m 3,2 km/h (1 Bft) 93,62 %
16.11.2018 20:38 4,9 C 2,8 C 2,2 C 81 % 1027,0 hPa 0,0 l/m 0 min 0 min 0 W/m 3,2 km/h (1 Bft) 93,62 %
16.11.2018 20:40 4,8 C 2,8 C 2,2 C 81 % 1027,0 hPa 0,0 l/m 0 min 0 min 0 W/m 6,4 km/h (2 Bft) 95,74 %
16.11.2018 20:42 4,7 C 2,8 C 2,2 C 82 % 1027,0 hPa 0,0 l/m 0 min 0 min 0 W/m 3,2 km/h (1 Bft) 95,74 %
16.11.2018 20:44 4,7 C 2,8 C 2,2 C 82 % 1026,9 hPa 0,0 l/m 0 min 0 min 0 W/m 3,2 km/h (1 Bft) 95,65 %
16.11.2018 20:46 4,6 C 2,2 C 2,2 C 82 % 1026,9 hPa 0,0 l/m 0 min 0 min 0 W/m 3,2 km/h (1 Bft) 95,74 %
16.11.2018 20:48 4,6 C 2,2 C 2,2 C 82 % 1027,0 hPa 0,0 l/m 0 min 0 min 0 W/m 3,2 km/h (1 Bft) 95,74 %
16.11.2018 20:50 4,5 C 2,2 C 2,2 C 82 % 1027,0 hPa 0,0 l/m 0 min 0 min 0 W/m 3,2 km/h (1 Bft) 95,74 %
16.11.2018 20:52 4,4 C 2,2 C 2,2 C 82 % 1026,9 hPa 0,0 l/m 0 min 0 min 0 W/m 3,2 km/h (1 Bft) 95,74 %
16.11.2018 20:54 4,4 C 2,8 C 2,2 C 83 % 1026,9 hPa 0,0 l/m 0 min 0 min 0 W/m 3,2 km/h (1 Bft) 97,83 %
16.11.2018 20:56 4,3 C 2,8 C 2,2 C 83 % 1026,9 hPa 0,0 l/m 0 min 0 min 0 W/m 6,4 km/h (2 Bft) 97,87 %
16.11.2018 20:58 4,3 C 3,9 C 2,2 C 84 % 1026,9 hPa 0,0 l/m 0 min 0 min 0 W/m 6,4 km/h (2 Bft) 97,87 %
16.11.2018 21:00 4,3 C 3,9 C 2,2 C 84 % 1026,9 hPa 0,0 l/m 0 min 0 min 0 W/m 6,4 km/h (2 Bft) 97,87 %
16.11.2018 21:02 4,4 C 4,4 C 2,2 C 85 % 1026,9 hPa 0,0 l/m 0 min 0 min 0 W/m 6,4 km/h (2 Bft) 100,00 %
16.11.2018 21:04 4,4 C 4,4 C 2,2 C 86 % 1026,9 hPa 0,0 l/m 0 min 0 min 0 W/m 6,4 km/h (2 Bft) 97,87 %
16.11.2018 21:06 4,5 C 4,4 C 2,8 C 86 % 1026,9 hPa 0,0 l/m 0 min 0 min 0 W/m 6,4 km/h (2 Bft) 95,74 %
16.11.2018 21:08 4,6 C 5,0 C 2,8 C 86 % 1026,9 hPa 0,0 l/m 0 min 0 min 0 W/m 6,4 km/h (2 Bft) 97,83 %
16.11.2018 21:10 4,7 C 5,0 C 2,8 C 87 % 1027,0 hPa 0,0 l/m 0 min 0 min 0 W/m 6,4 km/h (2 Bft) 93,62 %
16.11.2018 21:12 4,7 C 5,0 C 2,8 C 87 % 1026,9 hPa 0,0 l/m 0 min 0 min 0 W/m 6,4 km/h (2 Bft) 100,00 %
16.11.2018 21:14 4,8 C 5,0 C 2,8 C 87 % 1027,0 hPa 0,0 l/m 0 min 0 min 0 W/m 6,4 km/h (2 Bft) 97,87 %
16.11.2018 21:16 4,8 C 4,4 C 2,8 C 87 % 1027,0 hPa 0,0 l/m 0 min 0 min 0 W/m 3,2 km/h (1 Bft) 100,00 %
16.11.2018 21:18 4,8 C 3,9 C 2,8 C 86 % 1027,0 hPa 0,0 l/m 0 min 0 min 0 W/m 6,4 km/h (2 Bft) 97,83 %
16.11.2018 21:20 4,8 C 3,9 C 2,8 C 86 % 1027,0 hPa 0,0 l/m 0 min 0 min 0 W/m 6,4 km/h (2 Bft) 97,87 %
16.11.2018 21:22 4,8 C 3,3 C 2,8 C 86 % 1027,0 hPa 0,0 l/m 0 min 0 min 0 W/m 6,4 km/h (2 Bft) 100,00 %
16.11.2018 21:24 4,7 C 3,3 C 2,2 C 86 % 1027,0 hPa 0,0 l/m 0 min 0 min 0 W/m 3,2 km/h (1 Bft) 97,87 %
16.11.2018 21:26 4,7 C 2,8 C 2,2 C 86 % 1027,1 hPa 0,0 l/m 0 min 0 min 0 W/m 3,2 km/h (1 Bft) 97,87 %
16.11.2018 21:28 4,7 C 2,8 C 2,2 C 86 % 1027,0 hPa 0,0 l/m 0 min 0 min 0 W/m 3,2 km/h (1 Bft) 100,00 %
16.11.2018 21:30 4,7 C 2,2 C 2,2 C 86 % 1027,1 hPa 0,0 l/m 0 min 0 min 0 W/m 3,2 km/h (1 Bft) 95,65 %
16.11.2018 21:32 4,6 C 2,2 C 2,2 C 85 % 1027,1 hPa 0,0 l/m 0 min 0 min 0 W/m 3,2 km/h (1 Bft) 95,74 %
16.11.2018 21:34 4,6 C 2,2 C 2,2 C 85 % 1027,1 hPa 0,0 l/m 0 min 0 min 0 W/m 3,2 km/h (1 Bft) 97,87 %
16.11.2018 21:36 4,5 C 1,7 C 1,7 C 85 % 1027,1 hPa 0,0 l/m 0 min 0 min 0 W/m 3,2 km/h (1 Bft) 95,74 %
16.11.2018 21:38 4,4 C 1,7 C 1,7 C 85 % 1027,1 hPa 0,0 l/m 0 min 0 min 0 W/m 0,0 km/h (0 Bft) 97,87 %
16.11.2018 21:40 4,4 C 1,7 C 1,7 C 85 % 1027,2 hPa 0,0 l/m 0 min 0 min 0 W/m 0,0 km/h (0 Bft) 97,87 %
16.11.2018 21:42 4,3 C 1,7 C 1,7 C 85 % 1027,1 hPa 0,0 l/m 0 min 0 min 0 W/m 0,0 km/h (0 Bft) 97,83 %
16.11.2018 21:44 4,2 C 1,7 C 1,7 C 85 % 1027,1 hPa 0,0 l/m 0 min 0 min 0 W/m 0,0 km/h (0 Bft) 97,87 %
16.11.2018 21:46 4,2 C 1,7 C 1,7 C 85 % 1027,1 hPa 0,0 l/m 0 min 0 min 0 W/m 0,0 km/h (0 Bft) 95,74 %
16.11.2018 21:48 4,1 C 1,7 C 1,7 C 84 % 1027,2 hPa 0,0 l/m 0 min 0 min 0 W/m 0,0 km/h (0 Bft) 97,87 %
16.11.2018 21:50 4,1 C 1,7 C 1,7 C 84 % 1027,2 hPa 0,0 l/m 0 min 0 min 0 W/m 0,0 km/h (0 Bft) 97,87 %
16.11.2018 21:52 4,0 C 1,7 C 1,7 C 84 % 1027,1 hPa 0,0 l/m 0 min 0 min 0 W/m 0,0 km/h (0 Bft) 97,87 %
16.11.2018 21:54 3,9 C 1,7 C 1,7 C 84 % 1027,1 hPa 0,0 l/m 0 min 0 min 0 W/m 0,0 km/h (0 Bft) 97,83 %
16.11.2018 21:56 3,9 C 1,7 C 1,7 C 84 % 1027,1 hPa 0,0 l/m 0 min 0 min 0 W/m 0,0 km/h (0 Bft) 97,87 %
16.11.2018 21:58 3,9 C 2,2 C 1,7 C 85 % 1027,1 hPa 0,0 l/m 0 min 0 min 0 W/m 6,4 km/h (2 Bft) 97,87 %
16.11.2018 22:00 3,8 C 2,8 C 1,7 C 85 % 1027,0 hPa 0,0 l/m 0 min 0 min 0 W/m 6,4 km/h (2 Bft) 95,74 %
16.11.2018 22:02 3,8 C 3,3 C 1,7 C 86 % 1027,1 hPa 0,0 l/m 0 min 0 min 0 W/m 6,4 km/h (2 Bft) 97,87 %
16.11.2018 22:04 3,8 C 3,3 C 1,7 C 86 % 1027,1 hPa 0,0 l/m 0 min 0 min 0 W/m 6,4 km/h (2 Bft) 95,74 %
16.11.2018 22:06 3,8 C 3,3 C 1,7 C 87 % 1027,2 hPa 0,0 l/m 0 min 0 min 0 W/m 3,2 km/h (1 Bft) 97,83 %
16.11.2018 22:08 3,8 C 3,3 C 1,7 C 87 % 1027,2 hPa 0,0 l/m 0 min 0 min 0 W/m 6,4 km/h (2 Bft) 95,74 %
16.11.2018 22:10 3,8 C 2,8 C 1,7 C 87 % 1027,2 hPa 0,0 l/m 0 min 0 min 0 W/m 6,4 km/h (2 Bft) 95,74 %
16.11.2018 22:12 3,7 C 2,8 C 1,7 C 87 % 1027,1 hPa 0,0 l/m 0 min 0 min 0 W/m 6,4 km/h (2 Bft) 97,87 %
16.11.2018 22:14 3,7 C 2,8 C 1,7 C 87 % 1027,2 hPa 0,0 l/m 0 min 0 min 0 W/m 3,2 km/h (1 Bft) 95,74 %
16.11.2018 22:16 3,7 C 2,2 C 1,7 C 87 % 1027,1 hPa 0,0 l/m 0 min 0 min 0 W/m 6,4 km/h (2 Bft) 95,65 %
16.11.2018 22:18 3,7 C 2,2 C 1,7 C 87 % 1027,3 hPa 0,0 l/m 0 min 0 min 0 W/m 3,2 km/h (1 Bft) 93,62 %
16.11.2018 22:20 3,7 C 2,2 C 1,7 C 87 % 1027,2 hPa 0,0 l/m 0 min 0 min 0 W/m 3,2 km/h (1 Bft) 95,74 %
16.11.2018 22:22 3,6 C 1,7 C 1,7 C 87 % 1027,3 hPa 0,0 l/m 0 min 0 min 0 W/m 6,4 km/h (2 Bft) 96,00 %
16.11.2018 22:24 3,6 C 1,7 C 1,7 C 87 % 1027,3 hPa 0,0 l/m 0 min 0 min 0 W/m 3,2 km/h (1 Bft) 95,74 %
16.11.2018 22:26 3,6 C 1,7 C 1,7 C 87 % 1027,2 hPa 0,0 l/m 0 min 0 min 0 W/m 3,2 km/h (1 Bft) 97,83 %
16.11.2018 22:28 3,6 C 1,7 C 1,7 C 87 % 1027,2 hPa 0,0 l/m 0 min 0 min 0 W/m 3,2 km/h (1 Bft) 95,74 %
16.11.2018 22:30 3,5 C 1,7 C 1,7 C 87 % 1027,2 hPa 0,0 l/m 0 min 0 min 0 W/m 3,2 km/h (1 Bft) 97,87 %
16.11.2018 22:32 3,4 C 1,7 C 1,7 C 87 % 1027,3 hPa 0,0 l/m 0 min 0 min 0 W/m 0,0 km/h (0 Bft) 97,87 %
16.11.2018 22:34 3,4 C 1,7 C 1,1 C 87 % 1027,3 hPa 0,0 l/m 0 min 0 min 0 W/m 0,0 km/h (0 Bft) 97,87 %
16.11.2018 22:36 3,4 C 1,1 C 1,1 C 87 % 1027,2 hPa 0,0 l/m 0 min 0 min 0 W/m 0,0 km/h (0 Bft) 97,87 %
16.11.2018 22:38 3,3 C 1,1 C 1,1 C 87 % 1027,2 hPa 0,0 l/m 0 min 0 min 0 W/m 0,0 km/h (0 Bft) 93,48 %
16.11.2018 22:40 3,3 C 1,1 C 1,1 C 87 % 1027,2 hPa 0,0 l/m 0 min 0 min 0 W/m 0,0 km/h (0 Bft) 97,87 %
16.11.2018 22:42 3,3 C 1,1 C 1,1 C 87 % 1027,2 hPa 0,0 l/m 0 min 0 min 0 W/m 0,0 km/h (0 Bft) 97,87 %
16.11.2018 22:44 3,2 C 1,1 C 1,1 C 87 % 1027,2 hPa 0,0 l/m 0 min 0 min 0 W/m 0,0 km/h (0 Bft) 97,87 %
16.11.2018 22:46 3,2 C 1,1 C 1,1 C 87 % 1027,2 hPa 0,0 l/m 0 min 0 min 0 W/m 0,0 km/h (0 Bft) 100,00 %
16.11.2018 22:48 3,1 C 1,1 C 1,1 C 87 % 1027,2 hPa 0,0 l/m 0 min 0 min 0 W/m 0,0 km/h (0 Bft) 100,00 %
16.11.2018 22:50 3,1 C 0,6 C 1,1 C 87 % 1027,2 hPa 0,0 l/m 0 min 0 min 0 W/m 0,0 km/h (0 Bft) 100,00 %
16.11.2018 22:52 3,0 C 1,1 C 1,1 C 87 % 1027,2 hPa 0,0 l/m 0 min 0 min 0 W/m 0,0 km/h (0 Bft) 100,00 %
16.11.2018 22:54 2,9 C 1,1 C 1,1 C 87 % 1027,2 hPa 0,0 l/m 0 min 0 min 0 W/m 0,0 km/h (0 Bft) 100,00 %
16.11.2018 22:56 2,9 C 0,6 C 1,1 C 87 % 1027,2 hPa 0,0 l/m 0 min 0 min 0 W/m 0,0 km/h (0 Bft) 100,00 %
16.11.2018 22:58 2,9 C 0,6 C 0,6 C 87 % 1027,2 hPa 0,0 l/m 0 min 0 min 0 W/m 0,0 km/h (0 Bft) 97,87 %
16.11.2018 23:00 2,8 C 0,6 C 1,1 C 87 % 1027,2 hPa 0,0 l/m 0 min 0 min 0 W/m 3,2 km/h (1 Bft) 100,00 %
16.11.2018 23:02 2,8 C 0,6 C 0,6 C 87 % 1027,2 hPa 0,0 l/m 0 min 0 min 0 W/m 3,2 km/h (1 Bft) 97,83 %
16.11.2018 23:04 2,7 C 0,6 C 0,6 C 87 % 1027,2 hPa 0,0 l/m 0 min 0 min 0 W/m 3,2 km/h (1 Bft) 100,00 %
16.11.2018 23:06 2,7 C 0,6 C 0,6 C 87 % 1027,3 hPa 0,0 l/m 0 min 0 min 0 W/m 3,2 km/h (1 Bft) 100,00 %
16.11.2018 23:08 2,7 C 0,6 C 0,6 C 87 % 1027,4 hPa 0,0 l/m 0 min 0 min 0 W/m 3,2 km/h (1 Bft) 100,00 %
16.11.2018 23:10 2,6 C 0,6 C 0,6 C 87 % 1027,4 hPa 0,0 l/m 0 min 0 min 0 W/m 3,2 km/h (1 Bft) 100,00 %
16.11.2018 23:12 2,6 C 1,1 C 0,6 C 87 % 1027,4 hPa 0,0 l/m 0 min 0 min 0 W/m 3,2 km/h (1 Bft) 100,00 %
16.11.2018 23:14 2,5 C 1,1 C 0,6 C 87 % 1027,3 hPa 0,0 l/m 0 min 0 min 0 W/m 0,0 km/h (0 Bft) 100,00 %
16.11.2018 23:16 2,4 C 0,6 C 0,6 C 87 % 1027,4 hPa 0,0 l/m 0 min 0 min 0 W/m 0,0 km/h (0 Bft) 97,22 %
16.11.2018 23:18 2,4 C 0,6 C 0,6 C 87 % 1027,4 hPa 0,0 l/m 0 min 0 min 0 W/m 6,4 km/h (2 Bft) 100,00 %
16.11.2018 23:20 2,4 C 0,6 C 0,6 C 87 % 1027,4 hPa 0,0 l/m 0 min 0 min 0 W/m 3,2 km/h (1 Bft) 100,00 %
16.11.2018 23:22 2,4 C 0,6 C 0,6 C 87 % 1027,4 hPa 0,0 l/m 0 min 0 min 0 W/m 3,2 km/h (1 Bft) 100,00 %
16.11.2018 23:24 2,3 C 0,6 C 0,6 C 87 % 1027,3 hPa 0,0 l/m 0 min 0 min 0 W/m 3,2 km/h (1 Bft) 100,00 %
16.11.2018 23:26 2,3 C 0,6 C 0,6 C 88 % 1027,3 hPa 0,0 l/m 0 min 0 min 0 W/m 3,2 km/h (1 Bft) 100,00 %
16.11.2018 23:28 2,3 C 1,1 C 0,6 C 88 % 1027,3 hPa 0,0 l/m 0 min 0 min 0 W/m 0,0 km/h (0 Bft) 100,00 %
16.11.2018 23:30 2,2 C 0,6 C 0,6 C 88 % 1027,3 hPa 0,0 l/m 0 min 0 min 0 W/m 3,2 km/h (1 Bft) 100,00 %
16.11.2018 23:32 2,2 C 1,1 C 0,6 C 88 % 1027,3 hPa 0,0 l/m 0 min 0 min 0 W/m 3,2 km/h (1 Bft) 100,00 %
16.11.2018 23:34 2,2 C 0,6 C 0,6 C 88 % 1027,3 hPa 0,0 l/m 0 min 0 min 0 W/m 3,2 km/h (1 Bft) 98,31 %
16.11.2018 23:36 2,1 C 0,6 C 0,6 C 88 % 1027,3 hPa 0,0 l/m 0 min 0 min 0 W/m 3,2 km/h (1 Bft) 100,00 %
16.11.2018 23:38 2,1 C 0,6 C 0,6 C 88 % 1027,4 hPa 0,0 l/m 0 min 0 min 0 W/m 3,2 km/h (1 Bft) 100,00 %
16.11.2018 23:40 2,1 C 0,6 C 0,6 C 88 % 1027,4 hPa 0,0 l/m 0 min 0 min 0 W/m 3,2 km/h (1 Bft) 100,00 %
16.11.2018 23:42 2,1 C 0,6 C 0,6 C 88 % 1027,4 hPa 0,0 l/m 0 min 0 min 0 W/m 3,2 km/h (1 Bft) 100,00 %
16.11.2018 23:44 2,0 C 0,6 C 0,6 C 88 % 1027,3 hPa 0,0 l/m 0 min 0 min 0 W/m 3,2 km/h (1 Bft) 97,87 %
16.11.2018 23:46 2,0 C 0,6 C 0,6 C 88 % 1027,3 hPa 0,0 l/m 0 min 0 min 0 W/m 3,2 km/h (1 Bft) 98,31 %
16.11.2018 23:48 1,9 C 0,6 C 0,6 C 88 % 1027,3 hPa 0,0 l/m 0 min 0 min 0 W/m 3,2 km/h (1 Bft) 97,83 %
16.11.2018 23:50 1,9 C 0,6 C 0,6 C 88 % 1027,4 hPa 0,0 l/m 0 min 0 min 0 W/m 3,2 km/h (1 Bft) 97,22 %
16.11.2018 23:52 1,9 C 0,6 C 0,6 C 88 % 1027,4 hPa 0,0 l/m 0 min 0 min 0 W/m 3,2 km/h (1 Bft) 100,00 %
16.11.2018 23:54 1,9 C 0,6 C 0,6 C 88 % 1027,3 hPa 0,0 l/m 0 min 0 min 0 W/m 3,2 km/h (1 Bft) 100,00 %
16.11.2018 23:56 1,8 C 0,6 C 0,6 C 88 % 1027,4 hPa 0,0 l/m 0 min 0 min 0 W/m 3,2 km/h (1 Bft) 100,00 %
16.11.2018 23:58 1,8 C 0,6 C 0,6 C 89 % 1027,4 hPa 0,0 l/m 0 min 0 min 0 W/m 3,2 km/h (1 Bft) 98,31 %
_ Min-Zeit 23:56 22:50 22:58 14:38 00:02 - - - - 16:36 12:20
Minimum _ 1,8 C 0,6 C 0,6 C 68 % 1024,1 hPa - - - - 0,0 km/h (0 Bft) 91,30 %
_ Max-Zeit 14:32 13:42 12:14 05:22 23:08 00:00 12:08 00:00 12:32 10:06 00:08
Maximum _ 12,2 C 16,1 C 11,7 C 95 % 1027,4 hPa 0,0 l/m 4 min 0 min 361 W/m 41,8 km/h
O-SO (6 Bft)
100,00 %
Durchschnitt _ 6,4 C 6,4 C 4,6 C 85 % 1025,8 hPa #0,0 l/m #5:56 h #0 min. 188 W/m 13,4 km/h (3 Bft) 97,56 %
© 2018 W. Hausmann